Wetterdaten: Freitag, 24.02.2017
Datum Zeit Temp. Aussen Temp. o. S. +5cm Feuchte Auss BlattFeu 1 Luftdruck Regen Sonnenschein Regendauer Solar Windben Empfang
24.02.2017 00:00 5,7 C 5,6 C 3,3 C 88 % 15 lf 994,4 hPa 0,0 l/m 0 min 2 min 2 W/m 46,0 km/h (6 Bft) 91,49 %
24.02.2017 00:02 5,6 C 5,6 C 3,3 C 89 % 15 lf 994,6 hPa 0,0 l/m 0 min 2 min 2 W/m 52,3 km/h (7 Bft) 95,00 %
24.02.2017 00:05 5,6 C 5,6 C 3,3 C 89 % 15 lf 994,7 hPa 0,0 l/m 0 min 2 min 2 W/m 66,9 km/h (8 Bft) 95,00 %
24.02.2017 00:06 5,6 C 5,6 C 3,3 C 89 % 15 lf 994,7 hPa 0,0 l/m 0 min 1 min 2 W/m 66,9 km/h (8 Bft) 95,88 %
24.02.2017 00:08 5,6 C 5,6 C 3,3 C 89 % 15 lf 995,0 hPa 0,0 l/m 0 min 2 min 2 W/m 46,0 km/h (6 Bft) 95,74 %
24.02.2017 00:10 5,6 C 5,6 C 3,3 C 89 % 15 lf 995,1 hPa 0,0 l/m 0 min 2 min 2 W/m 54,4 km/h (7 Bft) 93,48 %
24.02.2017 00:12 5,5 C 5,0 C 3,3 C 89 % 15 lf 995,1 hPa 0,0 l/m 0 min 2 min 2 W/m 60,7 km/h (7 Bft) 93,62 %
24.02.2017 00:14 5,5 C 5,0 C 3,3 C 89 % 15 lf 995,3 hPa 0,0 l/m 0 min 2 min 2 W/m 39,7 km/h (6 Bft) 93,62 %
24.02.2017 00:16 5,4 C 5,0 C 3,3 C 89 % 15 lf 995,4 hPa 0,0 l/m 0 min 2 min 2 W/m 66,9 km/h (8 Bft) 93,62 %
24.02.2017 00:18 5,4 C 5,0 C 3,3 C 89 % 15 lf 995,5 hPa 0,0 l/m 0 min 2 min 2 W/m 50,2 km/h (7 Bft) 100,00 %
24.02.2017 00:20 5,4 C 5,0 C 3,3 C 89 % 15 lf 995,6 hPa 0,0 l/m 0 min 2 min 2 W/m 58,6 km/h (7 Bft) 100,00 %
24.02.2017 00:22 5,3 C 5,0 C 3,3 C 89 % 15 lf 995,6 hPa 0,0 l/m 0 min 2 min 2 W/m 54,4 km/h (7 Bft) 97,14 %
24.02.2017 00:24 5,3 C 5,0 C 3,3 C 89 % 15 lf 995,7 hPa 0,0 l/m 0 min 2 min 2 W/m 41,8 km/h (6 Bft) 98,28 %
24.02.2017 00:26 5,3 C 5,0 C 3,3 C 89 % 15 lf 996,0 hPa 0,0 l/m 0 min 2 min 2 W/m 54,4 km/h (7 Bft) 97,87 %
24.02.2017 00:28 5,2 C 5,0 C 2,8 C 89 % 15 lf 996,1 hPa 0,0 l/m 0 min 2 min 2 W/m 39,7 km/h (6 Bft) 95,74 %
24.02.2017 00:30 5,2 C 5,0 C 2,8 C 90 % 15 lf 996,3 hPa 0,2 l/m 0 min 2 min 2 W/m 48,1 km/h (6 Bft) 97,14 %
24.02.2017 00:32 5,1 C 5,0 C 2,8 C 90 % 15 lf 996,4 hPa 0,0 l/m 0 min 2 min 2 W/m 39,7 km/h (6 Bft) 98,31 %
24.02.2017 00:34 5,1 C 4,4 C 2,8 C 90 % 15 lf 996,7 hPa 0,0 l/m 0 min 2 min 2 W/m 43,9 km/h (6 Bft) 95,65 %
24.02.2017 00:36 5,1 C 4,4 C 2,8 C 90 % 15 lf 996,9 hPa 0,0 l/m 0 min 2 min 2 W/m 66,9 km/h (8 Bft) 97,87 %
24.02.2017 00:38 5,0 C 4,4 C 2,8 C 90 % 15 lf 997,0 hPa 0,0 l/m 0 min 2 min 2 W/m 43,9 km/h (6 Bft) 97,14 %
24.02.2017 00:40 4,9 C 4,4 C 2,8 C 90 % 15 lf 997,0 hPa 0,0 l/m 0 min 2 min 2 W/m 60,7 km/h (7 Bft) 94,92 %
24.02.2017 00:42 4,9 C 4,4 C 2,8 C 90 % 15 lf 996,9 hPa 0,0 l/m 0 min 2 min 2 W/m 60,7 km/h (7 Bft) 97,87 %
24.02.2017 00:44 4,8 C 4,4 C 2,8 C 90 % 15 lf 997,4 hPa 0,0 l/m 0 min 2 min 2 W/m 48,1 km/h (6 Bft) 97,87 %
24.02.2017 00:46 4,8 C 4,4 C 2,8 C 90 % 15 lf 997,1 hPa 0,0 l/m 0 min 2 min 2 W/m 56,5 km/h (7 Bft) 97,83 %
24.02.2017 00:48 4,8 C 4,4 C 2,8 C 90 % 15 lf 997,4 hPa 0,0 l/m 0 min 2 min 2 W/m 31,4 km/h (5 Bft) 93,62 %
24.02.2017 00:50 4,8 C 4,4 C 2,8 C 90 % 15 lf 997,6 hPa 0,0 l/m 0 min 2 min 2 W/m 37,7 km/h (5 Bft) 95,74 %
24.02.2017 00:52 4,8 C 4,4 C 2,8 C 90 % 15 lf 997,7 hPa 0,0 l/m 0 min 2 min 2 W/m 39,7 km/h (6 Bft) 91,43 %
24.02.2017 00:54 4,7 C 4,4 C 2,8 C 90 % 15 lf 997,8 hPa 0,0 l/m 0 min 2 min 2 W/m 35,6 km/h (5 Bft) 94,92 %
24.02.2017 00:56 4,7 C 4,4 C 2,8 C 90 % 15 lf 997,9 hPa 0,0 l/m 0 min 2 min 2 W/m 43,9 km/h (6 Bft) 94,29 %
24.02.2017 00:58 4,7 C 5,0 C 2,8 C 90 % 15 lf 998,1 hPa 0,0 l/m 0 min 2 min 2 W/m 46,0 km/h (6 Bft) 97,87 %
24.02.2017 01:00 4,7 C 5,0 C 2,8 C 90 % 15 lf 998,4 hPa 0,0 l/m 0 min 2 min 2 W/m 54,4 km/h (7 Bft) 97,83 %
24.02.2017 01:02 4,7 C 5,0 C 2,8 C 90 % 15 lf 998,4 hPa 0,0 l/m 0 min 2 min 2 W/m 37,7 km/h (5 Bft) 95,74 %
24.02.2017 01:04 4,7 C 5,0 C 2,8 C 90 % 15 lf 998,7 hPa 0,0 l/m 0 min 2 min 2 W/m 41,8 km/h (6 Bft) 94,92 %
24.02.2017 01:06 4,7 C 5,0 C 2,8 C 90 % 15 lf 998,7 hPa 0,0 l/m 0 min 2 min 2 W/m 39,7 km/h (6 Bft) 97,87 %
24.02.2017 01:08 4,7 C 4,4 C 2,8 C 90 % 15 lf 998,7 hPa 0,0 l/m 0 min 2 min 2 W/m 37,7 km/h (5 Bft) 97,83 %
24.02.2017 01:10 4,7 C 4,4 C 2,8 C 90 % 15 lf 998,8 hPa 0,0 l/m 0 min 2 min 2 W/m 52,3 km/h (7 Bft) 94,44 %
24.02.2017 01:12 4,7 C 4,4 C 2,8 C 90 % 15 lf 999,0 hPa 0,0 l/m 0 min 2 min 2 W/m 46,0 km/h (6 Bft) 97,83 %
24.02.2017 01:14 4,6 C 4,4 C 2,8 C 90 % 15 lf 999,0 hPa 0,0 l/m 0 min 2 min 2 W/m 31,4 km/h (5 Bft) 94,92 %
24.02.2017 01:16 4,6 C 4,4 C 2,8 C 90 % 15 lf 999,1 hPa 0,0 l/m 0 min 2 min 2 W/m 46,0 km/h (6 Bft) 95,74 %
24.02.2017 01:18 4,6 C 4,4 C 2,8 C 90 % 15 lf 999,2 hPa 0,0 l/m 0 min 2 min 2 W/m 35,6 km/h (5 Bft) 97,14 %
24.02.2017 01:20 4,6 C 4,4 C 2,8 C 90 % 15 lf 999,4 hPa 0,0 l/m 0 min 2 min 2 W/m 37,7 km/h (5 Bft) 96,55 %
24.02.2017 01:22 4,6 C 4,4 C 2,8 C 91 % 15 lf 999,4 hPa 0,0 l/m 0 min 2 min 2 W/m 37,7 km/h (5 Bft) 97,87 %
24.02.2017 01:24 4,6 C 4,4 C 2,8 C 91 % 15 lf 999,4 hPa 0,0 l/m 0 min 2 min 2 W/m 43,9 km/h (6 Bft) 94,29 %
24.02.2017 01:26 4,6 C 4,4 C 2,8 C 91 % 15 lf 999,7 hPa 0,0 l/m 0 min 2 min 2 W/m 39,7 km/h (6 Bft) 97,87 %
24.02.2017 01:28 4,6 C 4,4 C 2,8 C 91 % 15 lf 999,9 hPa 0,0 l/m 0 min 2 min 2 W/m 41,8 km/h (6 Bft) 94,92 %
24.02.2017 01:30 4,6 C 4,4 C 2,8 C 91 % 15 lf 999,8 hPa 0,0 l/m 0 min 2 min 2 W/m 37,7 km/h (5 Bft) 100,00 %
24.02.2017 01:32 4,5 C 4,4 C 2,8 C 91 % 15 lf 999,9 hPa 0,0 l/m 0 min 2 min 2 W/m 46,0 km/h (6 Bft) 93,62 %
24.02.2017 01:34 4,5 C 4,4 C 2,8 C 91 % 15 lf 1000,0 hPa 0,0 l/m 0 min 2 min 2 W/m 31,4 km/h (5 Bft) 97,87 %
24.02.2017 01:36 4,5 C 4,4 C 2,8 C 91 % 15 lf 1000,1 hPa 0,0 l/m 0 min 2 min 2 W/m 48,1 km/h (6 Bft) 98,28 %
24.02.2017 01:38 4,5 C 4,4 C 2,8 C 91 % 15 lf 1000,1 hPa 0,0 l/m 0 min 2 min 2 W/m 25,1 km/h (4 Bft) 95,74 %
24.02.2017 01:40 4,5 C 4,4 C 2,8 C 91 % 15 lf 1000,4 hPa 0,0 l/m 0 min 2 min 2 W/m 35,6 km/h (5 Bft) 97,14 %
24.02.2017 01:42 4,5 C 4,4 C 2,8 C 92 % 15 lf 1000,4 hPa 0,0 l/m 0 min 2 min 2 W/m 27,2 km/h (4 Bft) 98,31 %
24.02.2017 01:44 4,5 C 4,4 C 2,8 C 92 % 15 lf 1000,5 hPa 0,0 l/m 0 min 2 min 2 W/m 37,7 km/h (5 Bft) 95,65 %
24.02.2017 01:46 4,5 C 4,4 C 2,8 C 92 % 15 lf 1000,5 hPa 0,0 l/m 0 min 2 min 2 W/m 39,7 km/h (6 Bft) 100,00 %
24.02.2017 01:48 4,4 C 4,4 C 2,8 C 92 % 15 lf 1000,5 hPa 0,0 l/m 0 min 2 min 2 W/m 37,7 km/h (5 Bft) 96,55 %
24.02.2017 01:50 4,4 C 4,4 C 2,8 C 92 % 15 lf 1000,7 hPa 0,0 l/m 0 min 2 min 2 W/m 33,5 km/h (5 Bft) 100,00 %
24.02.2017 01:52 4,4 C 4,4 C 2,8 C 92 % 15 lf 1000,7 hPa 0,2 l/m 0 min 2 min 2 W/m 46,0 km/h (6 Bft) 100,00 %
24.02.2017 01:54 4,4 C 4,4 C 2,8 C 92 % 15 lf 1000,9 hPa 0,0 l/m 0 min 2 min 2 W/m 41,8 km/h (6 Bft) 97,87 %
24.02.2017 01:56 4,4 C 4,4 C 2,8 C 92 % 15 lf 1000,9 hPa 0,0 l/m 0 min 2 min 2 W/m 37,7 km/h (5 Bft) 97,14 %
24.02.2017 01:58 4,4 C 4,4 C 2,8 C 92 % 15 lf 1001,2 hPa 0,0 l/m 0 min 2 min 2 W/m 31,4 km/h (5 Bft) 96,55 %
24.02.2017 02:00 4,3 C 4,4 C 2,8 C 92 % 15 lf 1001,2 hPa 0,0 l/m 0 min 2 min 2 W/m 33,5 km/h (5 Bft) 94,29 %
24.02.2017 02:02 4,3 C 4,4 C 2,2 C 92 % 15 lf 1001,2 hPa 0,0 l/m 0 min 0 min 2 W/m 35,6 km/h (5 Bft) 98,31 %
24.02.2017 02:04 4,3 C 4,4 C 2,2 C 92 % 15 lf 1001,3 hPa 0,0 l/m 0 min 2 min 2 W/m 52,3 km/h (7 Bft) 100,00 %
24.02.2017 02:06 4,3 C 4,4 C 2,2 C 92 % 15 lf 1001,4 hPa 0,0 l/m 0 min 2 min 2 W/m 35,6 km/h (5 Bft) 94,92 %
24.02.2017 02:08 4,3 C 4,4 C 2,2 C 92 % 15 lf 1001,5 hPa 0,0 l/m 0 min 2 min 2 W/m 37,7 km/h (5 Bft) 97,14 %
24.02.2017 02:10 4,3 C 4,4 C 2,2 C 92 % 15 lf 1001,5 hPa 0,0 l/m 0 min 2 min 2 W/m 39,7 km/h (6 Bft) 94,83 %
24.02.2017 02:12 4,2 C 4,4 C 2,2 C 92 % 15 lf 1001,6 hPa 0,0 l/m 0 min 0 min 2 W/m 23,0 km/h (4 Bft) 94,29 %
24.02.2017 02:14 4,2 C 4,4 C 2,2 C 92 % 15 lf 1001,7 hPa 0,0 l/m 0 min 2 min 2 W/m 33,5 km/h (5 Bft) 94,92 %
24.02.2017 02:16 4,2 C 4,4 C 2,2 C 92 % 15 lf 1001,6 hPa 0,0 l/m 0 min 2 min 2 W/m 31,4 km/h (5 Bft) 91,49 %
24.02.2017 02:18 4,2 C 4,4 C 2,2 C 92 % 15 lf 1001,7 hPa 0,0 l/m 0 min 2 min 2 W/m 33,5 km/h (5 Bft) 95,65 %
24.02.2017 02:20 4,2 C 4,4 C 2,2 C 92 % 15 lf 1001,8 hPa 0,0 l/m 0 min 0 min 2 W/m 25,1 km/h (4 Bft) 95,74 %
24.02.2017 02:22 4,2 C 4,4 C 2,2 C 92 % 15 lf 1001,8 hPa 0,0 l/m 0 min 0 min 2 W/m 16,7 km/h (3 Bft) 93,62 %
24.02.2017 02:24 4,2 C 4,4 C 2,2 C 92 % 15 lf 1001,8 hPa 0,0 l/m 0 min 0 min 2 W/m 27,2 km/h (4 Bft) 95,74 %
24.02.2017 02:26 4,2 C 4,4 C 2,2 C 92 % 15 lf 1001,8 hPa 0,0 l/m 0 min 0 min 2 W/m 25,1 km/h (4 Bft) 95,74 %
24.02.2017 02:28 4,3 C 4,4 C 2,2 C 92 % 15 lf 1001,9 hPa 0,0 l/m 0 min 2 min 2 W/m 25,1 km/h (4 Bft) 94,29 %
24.02.2017 02:30 4,3 C 4,4 C 2,2 C 92 % 15 lf 1001,9 hPa 0,0 l/m 0 min 2 min 2 W/m 25,1 km/h (4 Bft) 91,49 %
24.02.2017 02:32 4,3 C 4,4 C 2,2 C 91 % 15 lf 1001,9 hPa 0,0 l/m 0 min 0 min 2 W/m 31,4 km/h (5 Bft) 94,83 %
24.02.2017 02:34 4,3 C 4,4 C 2,2 C 91 % 15 lf 1002,0 hPa 0,0 l/m 0 min 2 min 2 W/m 35,6 km/h (5 Bft) 93,62 %
24.02.2017 02:36 4,3 C 4,4 C 2,2 C 91 % 15 lf 1002,0 hPa 0,0 l/m 0 min 0 min 2 W/m 31,4 km/h (5 Bft) 95,74 %
24.02.2017 02:38 4,3 C 4,4 C 2,2 C 91 % 15 lf 1002,0 hPa 0,0 l/m 0 min 2 min 2 W/m 31,4 km/h (5 Bft) 95,74 %
24.02.2017 02:40 4,3 C 4,4 C 2,2 C 91 % 15 lf 1002,1 hPa 0,0 l/m 0 min 2 min 2 W/m 20,9 km/h (4 Bft) 95,74 %
24.02.2017 02:42 4,3 C 4,4 C 2,2 C 91 % 15 lf 1002,2 hPa 0,0 l/m 0 min 2 min 2 W/m 23,0 km/h (4 Bft) 94,29 %
24.02.2017 02:44 4,3 C 4,4 C 2,2 C 91 % 15 lf 1002,4 hPa 0,0 l/m 0 min 0 min 2 W/m 25,1 km/h (4 Bft) 93,10 %
24.02.2017 02:46 4,3 C 4,4 C 2,2 C 91 % 15 lf 1002,5 hPa 0,0 l/m 0 min 2 min 2 W/m 23,0 km/h (4 Bft) 97,87 %
24.02.2017 02:48 4,3 C 4,4 C 2,2 C 91 % 15 lf 1002,4 hPa 0,0 l/m 0 min 0 min 2 W/m 37,7 km/h (5 Bft) 100,00 %
24.02.2017 02:50 4,3 C 4,4 C 2,2 C 91 % 15 lf 1002,5 hPa 0,0 l/m 0 min 2 min 2 W/m 23,0 km/h (4 Bft) 93,22 %
24.02.2017 02:52 4,3 C 4,4 C 2,2 C 91 % 15 lf 1002,6 hPa 0,0 l/m 0 min 2 min 2 W/m 23,0 km/h (4 Bft) 89,36 %
24.02.2017 02:54 4,3 C 4,4 C 2,2 C 91 % 15 lf 1002,5 hPa 0,0 l/m 0 min 0 min 2 W/m 20,9 km/h (4 Bft) 100,00 %
24.02.2017 02:56 4,3 C 4,4 C 2,2 C 91 % 15 lf 1002,5 hPa 0,0 l/m 0 min 0 min 2 W/m 31,4 km/h (5 Bft) 100,00 %
24.02.2017 02:58 4,3 C 4,4 C 2,2 C 91 % 15 lf 1002,5 hPa 0,0 l/m 0 min 0 min 2 W/m 33,5 km/h (5 Bft) 93,62 %
24.02.2017 03:00 4,3 C 4,4 C 2,2 C 91 % 15 lf 1002,6 hPa 0,0 l/m 0 min 2 min 2 W/m 29,3 km/h (5 Bft) 97,14 %
24.02.2017 03:02 4,3 C 4,4 C 2,2 C 91 % 15 lf 1002,7 hPa 0,0 l/m 0 min 0 min 2 W/m 27,2 km/h (4 Bft) 93,62 %
24.02.2017 03:04 4,3 C 4,4 C 2,2 C 91 % 15 lf 1002,7 hPa 0,0 l/m 0 min 0 min 2 W/m 25,1 km/h (4 Bft) 95,74 %
24.02.2017 03:06 4,3 C 3,9 C 2,2 C 91 % 15 lf 1002,7 hPa 0,0 l/m 0 min 0 min 3 W/m 14,6 km/h (3 Bft) 96,55 %
24.02.2017 03:08 4,2 C 3,9 C 2,2 C 90 % 15 lf 1002,8 hPa 0,0 l/m 0 min 2 min 5 W/m 20,9 km/h (4 Bft) 95,74 %
24.02.2017 03:10 4,2 C 4,4 C 2,2 C 90 % 15 lf 1002,9 hPa 0,0 l/m 0 min 0 min 4 W/m 35,6 km/h (5 Bft) 95,74 %
24.02.2017 03:12 4,2 C 4,4 C 2,2 C 90 % 15 lf 1003,0 hPa 0,0 l/m 0 min 2 min 0 W/m 31,4 km/h (5 Bft) 97,14 %
24.02.2017 03:14 4,2 C 4,4 C 2,2 C 90 % 15 lf 1003,0 hPa 0,0 l/m 0 min 0 min 4 W/m 27,2 km/h (4 Bft) 93,62 %
24.02.2017 03:16 4,2 C 4,4 C 2,2 C 90 % 15 lf 1003,0 hPa 0,0 l/m 0 min 0 min 2 W/m 29,3 km/h (5 Bft) 94,92 %
24.02.2017 03:18 4,2 C 3,9 C 2,2 C 90 % 15 lf 1003,0 hPa 0,0 l/m 0 min 0 min 2 W/m 27,2 km/h (4 Bft) 93,48 %
24.02.2017 03:20 4,2 C 3,9 C 1,7 C 90 % 15 lf 1003,1 hPa 0,0 l/m 0 min 0 min 2 W/m 27,2 km/h (4 Bft) 95,74 %
24.02.2017 03:22 4,2 C 3,9 C 1,7 C 90 % 15 lf 1003,1 hPa 0,0 l/m 0 min 0 min 2 W/m 27,2 km/h (4 Bft) 97,87 %
24.02.2017 03:24 4,1 C 3,9 C 2,2 C 90 % 15 lf 1003,2 hPa 0,0 l/m 0 min 0 min 2 W/m 27,2 km/h (4 Bft) 97,87 %
24.02.2017 03:26 4,1 C 3,9 C 2,2 C 90 % 15 lf 1003,3 hPa 0,0 l/m 0 min 0 min 2 W/m 20,9 km/h (4 Bft) 91,49 %
24.02.2017 03:28 4,1 C 4,4 C 2,2 C 90 % 15 lf 1003,3 hPa 0,0 l/m 0 min 2 min 3 W/m 31,4 km/h (5 Bft) 94,29 %
24.02.2017 03:30 4,1 C 3,9 C 2,2 C 90 % 15 lf 1003,4 hPa 0,0 l/m 0 min 2 min 4 W/m 20,9 km/h (4 Bft) 95,74 %
24.02.2017 03:32 4,1 C 3,9 C 2,2 C 90 % 15 lf 1003,4 hPa 0,0 l/m 0 min 2 min 2 W/m 27,2 km/h (4 Bft) 96,55 %
24.02.2017 03:34 4,1 C 3,9 C 1,7 C 90 % 15 lf 1003,5 hPa 0,0 l/m 0 min 0 min 4 W/m 20,9 km/h (4 Bft) 95,74 %
24.02.2017 03:36 4,1 C 3,9 C 2,2 C 90 % 15 lf 1003,5 hPa 0,0 l/m 0 min 0 min 3 W/m 25,1 km/h (4 Bft) 95,74 %
24.02.2017 03:38 4,1 C 3,9 C 2,2 C 90 % 15 lf 1003,6 hPa 0,0 l/m 0 min 0 min 3 W/m 23,0 km/h (4 Bft) 97,14 %
24.02.2017 03:40 4,1 C 3,9 C 2,2 C 90 % 15 lf 1003,6 hPa 0,0 l/m 0 min 0 min 3 W/m 31,4 km/h (5 Bft) 94,83 %
24.02.2017 03:42 4,1 C 3,9 C 2,2 C 90 % 15 lf 1003,6 hPa 0,0 l/m 0 min 0 min 3 W/m 27,2 km/h (4 Bft) 97,87 %
24.02.2017 03:44 4,1 C 3,9 C 2,2 C 90 % 15 lf 1003,6 hPa 0,0 l/m 0 min 0 min 3 W/m 35,6 km/h (5 Bft) 100,00 %
24.02.2017 03:46 4,1 C 4,4 C 2,2 C 90 % 15 lf 1003,7 hPa 0,0 l/m 0 min 0 min 3 W/m 20,9 km/h (4 Bft) 96,61 %
24.02.2017 03:48 4,1 C 4,4 C 2,2 C 90 % 14 lf 1003,7 hPa 0,0 l/m 0 min 0 min 4 W/m 27,2 km/h (4 Bft) 97,87 %
24.02.2017 03:50 4,1 C 3,9 C 2,2 C 90 % 12 lf 1003,7 hPa 0,0 l/m 0 min 0 min 3 W/m 20,9 km/h (4 Bft) 95,74 %
24.02.2017 03:52 4,1 C 3,9 C 1,7 C 90 % 11 lf 1003,8 hPa 0,0 l/m 0 min 0 min 4 W/m 29,3 km/h (5 Bft) 97,14 %
24.02.2017 03:54 4,1 C 3,9 C 1,7 C 90 % 9 lf 1003,9 hPa 0,0 l/m 0 min 0 min 4 W/m 25,1 km/h (4 Bft) 98,28 %
24.02.2017 03:56 4,1 C 3,9 C 1,7 C 90 % 7 lf 1003,9 hPa 0,0 l/m 0 min 0 min 4 W/m 18,8 km/h (3 Bft) 97,87 %
24.02.2017 03:58 4,1 C 3,9 C 1,7 C 90 % 4 lf 1004,0 hPa 0,0 l/m 0 min 0 min 4 W/m 16,7 km/h (3 Bft) 91,49 %
24.02.2017 04:00 4,1 C 3,9 C 2,2 C 90 % 4 lf 1004,0 hPa 0,0 l/m 0 min 0 min 4 W/m 16,7 km/h (3 Bft) 91,49 %
24.02.2017 04:02 4,1 C 3,9 C 2,2 C 90 % 4 lf 1004,0 hPa 0,0 l/m 0 min 0 min 4 W/m 20,9 km/h (4 Bft) 100,00 %
24.02.2017 04:07 4,1 C 3,9 C 2,2 C 90 % 4 lf 1004,1 hPa 0,0 l/m 0 min 0 min 4 W/m 23,0 km/h (4 Bft) 100,00 %
24.02.2017 04:08 4,1 C 3,9 C 2,2 C 90 % 4 lf 1004,1 hPa 0,0 l/m 0 min 0 min 4 W/m 20,9 km/h (4 Bft) 90,91 %
24.02.2017 04:10 4,0 C 3,9 C 2,2 C 90 % 4 lf 1004,1 hPa 0,0 l/m 0 min 0 min 3 W/m 29,3 km/h (5 Bft) 91,53 %
24.02.2017 04:12 4,1 C 3,9 C 2,2 C 90 % 0 lf 1004,1 hPa 0,0 l/m 0 min 0 min 3 W/m 27,2 km/h (4 Bft) 91,49 %
24.02.2017 04:14 4,0 C 3,9 C 2,2 C 90 % 0 lf 1004,1 hPa 0,0 l/m 0 min 0 min 4 W/m 20,9 km/h (4 Bft) 93,62 %
24.02.2017 04:16 4,0 C 3,9 C 2,2 C 90 % 0 lf 1004,2 hPa 0,0 l/m 0 min 0 min 4 W/m 31,4 km/h (5 Bft) 91,30 %
24.02.2017 04:18 4,0 C 3,9 C 1,7 C 90 % 0 lf 1004,2 hPa 0,0 l/m 0 min 0 min 4 W/m 23,0 km/h (4 Bft) 94,44 %
24.02.2017 04:20 4,0 C 3,9 C 2,2 C 90 % 0 lf 1004,3 hPa 0,0 l/m 0 min 0 min 4 W/m 18,8 km/h (3 Bft) 93,10 %
24.02.2017 04:22 3,9 C 3,9 C 2,2 C 90 % 0 lf 1004,4 hPa 0,0 l/m 0 min 0 min 4 W/m 29,3 km/h (5 Bft) 93,62 %
24.02.2017 04:24 3,9 C 3,9 C 2,2 C 90 % 0 lf 1004,4 hPa 0,0 l/m 0 min 0 min 4 W/m 31,4 km/h (5 Bft) 91,43 %
24.02.2017 04:26 3,9 C 3,9 C 2,2 C 90 % 0 lf 1004,4 hPa 0,0 l/m 0 min 0 min 4 W/m 29,3 km/h (5 Bft) 93,10 %
24.02.2017 04:28 3,9 C 4,4 C 2,2 C 90 % 0 lf 1004,5 hPa 0,0 l/m 0 min 0 min 4 W/m 29,3 km/h (5 Bft) 94,44 %
24.02.2017 04:30 3,9 C 4,4 C 2,2 C 90 % 0 lf 1004,5 hPa 0,0 l/m 0 min 0 min 3 W/m 27,2 km/h (4 Bft) 93,48 %
24.02.2017 04:32 3,9 C 4,4 C 2,2 C 90 % 0 lf 1004,6 hPa 0,0 l/m 0 min 0 min 2 W/m 25,1 km/h (4 Bft) 96,61 %
24.02.2017 04:34 3,9 C 4,4 C 2,2 C 90 % 0 lf 1004,6 hPa 0,0 l/m 0 min 0 min 2 W/m 29,3 km/h (5 Bft) 94,29 %
24.02.2017 04:36 3,9 C 4,4 C 2,2 C 90 % 0 lf 1004,7 hPa 0,0 l/m 0 min 0 min 2 W/m 25,1 km/h (4 Bft) 93,22 %
24.02.2017 04:38 4,0 C 4,4 C 2,2 C 90 % 0 lf 1004,7 hPa 0,0 l/m 0 min 0 min 2 W/m 18,8 km/h (3 Bft) 94,29 %
24.02.2017 04:40 4,0 C 4,4 C 2,2 C 90 % 0 lf 1004,7 hPa 0,0 l/m 0 min 0 min 2 W/m 18,8 km/h (3 Bft) 95,74 %
24.02.2017 04:42 4,0 C 4,4 C 2,2 C 90 % 3 lf 1004,8 hPa 0,0 l/m 0 min 0 min 2 W/m 23,0 km/h (4 Bft) 93,48 %
24.02.2017 04:44 4,0 C 4,4 C 2,2 C 90 % 12 lf 1004,9 hPa 0,0 l/m 0 min 2 min 2 W/m 31,4 km/h (5 Bft) 95,74 %
24.02.2017 04:46 4,0 C 3,9 C 2,2 C 90 % 15 lf 1005,0 hPa 0,0 l/m 0 min 2 min 2 W/m 33,5 km/h (5 Bft) 93,22 %
24.02.2017 04:48 4,0 C 3,9 C 2,2 C 90 % 15 lf 1005,1 hPa 0,0 l/m 0 min 2 min 2 W/m 37,7 km/h (5 Bft) 94,29 %
24.02.2017 04:50 3,9 C 3,3 C 1,7 C 90 % 15 lf 1005,0 hPa 0,2 l/m 0 min 2 min 2 W/m 46,0 km/h (6 Bft) 94,83 %
24.02.2017 04:52 3,9 C 3,3 C 1,7 C 90 % 15 lf 1005,2 hPa 0,0 l/m 0 min 2 min 4 W/m 37,7 km/h (5 Bft) 95,74 %
24.02.2017 04:54 3,9 C 3,3 C 1,7 C 90 % 15 lf 1005,2 hPa 0,0 l/m 0 min 2 min 4 W/m 33,5 km/h (5 Bft) 97,14 %
24.02.2017 04:56 3,8 C 3,3 C 1,7 C 90 % 15 lf 1005,2 hPa 0,2 l/m 0 min 2 min 4 W/m 35,6 km/h (5 Bft) 96,61 %
24.02.2017 04:58 3,8 C 3,3 C 1,7 C 90 % 15 lf 1005,2 hPa 0,0 l/m 0 min 2 min 4 W/m 25,1 km/h (4 Bft) 97,87 %
24.02.2017 05:00 3,8 C 2,8 C 1,7 C 90 % 15 lf 1005,2 hPa 0,2 l/m 0 min 2 min 4 W/m 20,9 km/h (4 Bft) 97,87 %
24.02.2017 05:02 3,7 C 2,8 C 1,7 C 90 % 15 lf 1005,3 hPa 0,0 l/m 0 min 2 min 3 W/m 23,0 km/h (4 Bft) 97,14 %
24.02.2017 05:04 3,7 C 2,8 C 1,7 C 90 % 15 lf 1005,4 hPa 0,0 l/m 0 min 2 min 3 W/m 25,1 km/h (4 Bft) 98,28 %
24.02.2017 05:06 3,7 C 2,8 C 1,7 C 91 % 15 lf 1005,5 hPa 0,0 l/m 0 min 2 min 2 W/m 20,9 km/h (4 Bft) 95,74 %
24.02.2017 05:08 3,7 C 2,8 C 1,7 C 91 % 15 lf 1005,6 hPa 0,0 l/m 0 min 2 min 4 W/m 16,7 km/h (3 Bft) 97,87 %
24.02.2017 05:10 3,6 C 2,8 C 1,7 C 91 % 15 lf 1005,5 hPa 0,0 l/m 0 min 2 min 4 W/m 18,8 km/h (3 Bft) 97,14 %
24.02.2017 05:12 3,6 C 2,8 C 1,7 C 91 % 15 lf 1005,5 hPa 0,0 l/m 0 min 2 min 4 W/m 16,7 km/h (3 Bft) 98,31 %
24.02.2017 05:14 3,6 C 2,8 C 1,7 C 91 % 15 lf 1005,5 hPa 0,0 l/m 0 min 0 min 4 W/m 16,7 km/h (3 Bft) 100,00 %
24.02.2017 05:16 3,5 C 2,8 C 1,1 C 91 % 15 lf 1005,6 hPa 0,0 l/m 0 min 0 min 4 W/m 14,6 km/h (3 Bft) 97,22 %
24.02.2017 05:18 3,4 C 2,8 C 1,1 C 92 % 15 lf 1005,7 hPa 0,0 l/m 0 min 0 min 0 W/m 16,7 km/h (3 Bft) 96,55 %
24.02.2017 05:20 3,4 C 2,8 C 1,1 C 92 % 15 lf 1005,6 hPa 0,0 l/m 0 min 0 min 0 W/m 12,6 km/h (3 Bft) 94,29 %
24.02.2017 05:22 3,4 C 2,8 C 1,1 C 92 % 15 lf 1005,7 hPa 0,0 l/m 0 min 0 min 0 W/m 20,9 km/h (4 Bft) 100,00 %
24.02.2017 05:24 3,4 C 2,8 C 1,1 C 92 % 15 lf 1005,7 hPa 0,0 l/m 0 min 0 min 0 W/m 14,6 km/h (3 Bft) 100,00 %
24.02.2017 05:26 3,4 C 2,8 C 1,7 C 92 % 15 lf 1005,8 hPa 0,0 l/m 0 min 0 min 0 W/m 20,9 km/h (4 Bft) 97,87 %
24.02.2017 05:28 3,4 C 2,8 C 1,7 C 92 % 15 lf 1005,9 hPa 0,0 l/m 0 min 0 min 0 W/m 25,1 km/h (4 Bft) 100,00 %
24.02.2017 05:30 3,3 C 2,8 C 1,1 C 92 % 15 lf 1005,9 hPa 0,0 l/m 0 min 0 min 0 W/m 12,6 km/h (3 Bft) 100,00 %
24.02.2017 05:32 3,3 C 2,8 C 1,1 C 93 % 15 lf 1005,9 hPa 0,0 l/m 0 min 0 min 0 W/m 16,7 km/h (3 Bft) 100,00 %
24.02.2017 05:34 3,3 C 2,8 C 1,1 C 93 % 15 lf 1006,0 hPa 0,0 l/m 0 min 0 min 0 W/m 18,8 km/h (3 Bft) 100,00 %
24.02.2017 05:36 3,3 C 2,8 C 1,1 C 93 % 15 lf 1006,0 hPa 0,0 l/m 0 min 0 min 0 W/m 20,9 km/h (4 Bft) 96,55 %
24.02.2017 05:38 3,3 C 2,8 C 1,1 C 93 % 15 lf 1006,0 hPa 0,0 l/m 0 min 0 min 0 W/m 12,6 km/h (3 Bft) 97,22 %
24.02.2017 05:40 3,3 C 2,8 C 1,1 C 93 % 15 lf 1006,1 hPa 0,0 l/m 0 min 0 min 0 W/m 25,1 km/h (4 Bft) 100,00 %
24.02.2017 05:42 3,3 C 2,8 C 1,1 C 93 % 15 lf 1006,1 hPa 0,0 l/m 0 min 0 min 0 W/m 18,8 km/h (3 Bft) 100,00 %
24.02.2017 05:44 3,3 C 2,8 C 1,1 C 93 % 15 lf 1006,3 hPa 0,0 l/m 0 min 0 min 0 W/m 16,7 km/h (3 Bft) 100,00 %
24.02.2017 05:46 3,2 C 2,8 C 1,1 C 93 % 15 lf 1006,4 hPa 0,0 l/m 0 min 0 min 0 W/m 25,1 km/h (4 Bft) 91,43 %
24.02.2017 05:48 3,3 C 2,8 C 1,1 C 93 % 15 lf 1006,4 hPa 0,0 l/m 0 min 0 min 0 W/m 14,6 km/h (3 Bft) 96,55 %
24.02.2017 05:50 3,2 C 2,8 C 1,1 C 93 % 15 lf 1006,4 hPa 0,0 l/m 0 min 0 min 0 W/m 14,6 km/h (3 Bft) 97,87 %
24.02.2017 05:52 3,2 C 2,8 C 1,1 C 93 % 15 lf 1006,5 hPa 0,0 l/m 0 min 0 min 0 W/m 12,6 km/h (3 Bft) 95,74 %
24.02.2017 05:54 3,2 C 2,8 C 1,1 C 93 % 15 lf 1006,5 hPa 0,0 l/m 0 min 0 min 0 W/m 23,0 km/h (4 Bft) 97,14 %
24.02.2017 05:56 3,2 C 2,8 C 1,7 C 93 % 15 lf 1006,5 hPa 0,0 l/m 0 min 0 min 0 W/m 16,7 km/h (3 Bft) 93,22 %
24.02.2017 05:58 3,2 C 2,8 C 1,7 C 94 % 15 lf 1006,5 hPa 0,0 l/m 0 min 0 min 0 W/m 25,1 km/h (4 Bft) 97,14 %
24.02.2017 06:00 3,2 C 3,3 C 1,7 C 94 % 15 lf 1006,5 hPa 0,0 l/m 0 min 0 min 0 W/m 16,7 km/h (3 Bft) 96,55 %
24.02.2017 06:02 3,3 C 3,3 C 1,7 C 94 % 15 lf 1006,6 hPa 0,0 l/m 0 min 0 min 0 W/m 20,9 km/h (4 Bft) 95,74 %
24.02.2017 06:04 3,3 C 3,3 C 1,7 C 94 % 15 lf 1006,7 hPa 0,0 l/m 0 min 0 min 0 W/m 20,9 km/h (4 Bft) 100,00 %
24.02.2017 06:06 3,3 C 3,3 C 1,7 C 94 % 15 lf 1006,6 hPa 0,0 l/m 0 min 0 min 0 W/m 18,8 km/h (3 Bft) 95,74 %
24.02.2017 06:08 3,3 C 3,3 C 1,7 C 94 % 15 lf 1006,7 hPa 0,0 l/m 0 min 0 min 0 W/m 23,0 km/h (4 Bft) 97,87 %
24.02.2017 06:10 3,3 C 3,3 C 1,7 C 94 % 15 lf 1006,7 hPa 0,0 l/m 0 min 0 min 0 W/m 27,2 km/h (4 Bft) 97,87 %
24.02.2017 06:12 3,3 C 3,3 C 1,7 C 94 % 15 lf 1006,8 hPa 0,0 l/m 0 min 0 min 0 W/m 16,7 km/h (3 Bft) 95,74 %
24.02.2017 06:14 3,3 C 3,3 C 1,7 C 94 % 15 lf 1006,8 hPa 0,0 l/m 0 min 0 min 0 W/m 27,2 km/h (4 Bft) 97,87 %
24.02.2017 06:16 3,3 C 3,3 C 1,7 C 94 % 15 lf 1006,9 hPa 0,0 l/m 0 min 0 min 0 W/m 35,6 km/h (5 Bft) 97,83 %
24.02.2017 06:18 3,3 C 3,3 C 1,7 C 94 % 15 lf 1006,9 hPa 0,0 l/m 0 min 0 min 0 W/m 25,1 km/h (4 Bft) 95,74 %
24.02.2017 06:20 3,3 C 3,3 C 1,7 C 94 % 15 lf 1006,9 hPa 0,0 l/m 0 min 0 min 0 W/m 25,1 km/h (4 Bft) 97,87 %
24.02.2017 06:22 3,3 C 3,3 C 1,7 C 94 % 15 lf 1007,0 hPa 0,0 l/m 0 min 0 min 0 W/m 25,1 km/h (4 Bft) 100,00 %
24.02.2017 06:24 3,3 C 3,3 C 1,7 C 94 % 15 lf 1006,9 hPa 0,0 l/m 0 min 0 min 0 W/m 20,9 km/h (4 Bft) 100,00 %
24.02.2017 06:26 3,3 C 3,3 C 1,7 C 94 % 15 lf 1007,0 hPa 0,0 l/m 0 min 0 min 0 W/m 25,1 km/h (4 Bft) 97,87 %
24.02.2017 06:28 3,3 C 3,3 C 1,7 C 94 % 15 lf 1007,1 hPa 0,0 l/m 0 min 0 min 0 W/m 20,9 km/h (4 Bft) 97,83 %
24.02.2017 06:30 3,3 C 2,8 C 1,7 C 94 % 15 lf 1007,1 hPa 0,0 l/m 0 min 0 min 0 W/m 20,9 km/h (4 Bft) 97,87 %
24.02.2017 06:32 3,3 C 2,8 C 1,1 C 94 % 15 lf 1007,1 hPa 0,0 l/m 0 min 0 min 0 W/m 25,1 km/h (4 Bft) 97,87 %
24.02.2017 06:34 3,3 C 2,8 C 1,1 C 94 % 15 lf 1007,1 hPa 0,0 l/m 0 min 0 min 0 W/m 20,9 km/h (4 Bft) 100,00 %
24.02.2017 06:36 3,2 C 2,8 C 1,1 C 94 % 15 lf 1007,1 hPa 0,0 l/m 0 min 0 min 0 W/m 16,7 km/h (3 Bft) 97,87 %
24.02.2017 06:38 3,2 C 2,8 C 1,1 C 94 % 15 lf 1007,1 hPa 0,0 l/m 0 min 0 min 0 W/m 25,1 km/h (4 Bft) 100,00 %
24.02.2017 06:40 3,2 C 2,8 C 1,1 C 94 % 15 lf 1007,2 hPa 0,0 l/m 0 min 0 min 0 W/m 27,2 km/h (4 Bft) 100,00 %
24.02.2017 06:42 3,2 C 2,8 C 1,1 C 93 % 15 lf 1007,3 hPa 0,0 l/m 0 min 0 min 0 W/m 18,8 km/h (3 Bft) 95,74 %
24.02.2017 06:44 3,2 C 2,8 C 1,1 C 93 % 15 lf 1007,4 hPa 0,0 l/m 0 min 0 min 0 W/m 25,1 km/h (4 Bft) 97,87 %
24.02.2017 06:46 3,1 C 2,8 C 1,1 C 93 % 15 lf 1007,5 hPa 0,0 l/m 0 min 0 min 0 W/m 20,9 km/h (4 Bft) 95,74 %
24.02.2017 06:48 3,1 C 2,8 C 1,1 C 93 % 15 lf 1007,4 hPa 0,0 l/m 0 min 0 min 0 W/m 27,2 km/h (4 Bft) 95,74 %
24.02.2017 06:50 3,1 C 2,8 C 1,7 C 93 % 15 lf 1007,5 hPa 0,0 l/m 0 min 0 min 0 W/m 25,1 km/h (4 Bft) 100,00 %
24.02.2017 06:52 3,1 C 2,8 C 1,1 C 93 % 15 lf 1007,6 hPa 0,0 l/m 0 min 0 min 0 W/m 20,9 km/h (4 Bft) 95,74 %
24.02.2017 06:54 3,1 C 2,8 C 1,1 C 93 % 15 lf 1007,5 hPa 0,0 l/m 0 min 0 min 0 W/m 23,0 km/h (4 Bft) 100,00 %
24.02.2017 06:56 3,1 C 2,8 C 1,1 C 93 % 15 lf 1007,7 hPa 0,0 l/m 0 min 0 min 0 W/m 31,4 km/h (5 Bft) 100,00 %
24.02.2017 06:58 3,1 C 2,8 C 1,1 C 93 % 15 lf 1007,7 hPa 0,0 l/m 0 min 0 min 0 W/m 25,1 km/h (4 Bft) 97,87 %
24.02.2017 07:00 3,1 C 2,8 C 1,7 C 93 % 15 lf 1007,8 hPa 0,0 l/m 0 min 0 min 0 W/m 25,1 km/h (4 Bft) 97,87 %
24.02.2017 07:02 3,1 C 2,8 C 1,7 C 93 % 15 lf 1007,9 hPa 0,0 l/m 0 min 0 min 0 W/m 23,0 km/h (4 Bft) 97,83 %
24.02.2017 07:04 3,1 C 2,8 C 1,7 C 93 % 15 lf 1007,9 hPa 0,0 l/m 0 min 0 min 0 W/m 20,9 km/h (4 Bft) 91,49 %
24.02.2017 07:06 3,1 C 2,8 C 1,7 C 93 % 15 lf 1007,9 hPa 0,0 l/m 0 min 0 min 0 W/m 20,9 km/h (4 Bft) 93,62 %
24.02.2017 07:08 3,1 C 2,8 C 1,7 C 93 % 15 lf 1008,0 hPa 0,0 l/m 0 min 0 min 0 W/m 14,6 km/h (3 Bft) 95,74 %
24.02.2017 07:10 3,1 C 2,8 C 1,7 C 93 % 15 lf 1008,1 hPa 0,0 l/m 0 min 0 min 0 W/m 18,8 km/h (3 Bft) 95,74 %
24.02.2017 07:12 3,1 C 2,8 C 1,7 C 93 % 15 lf 1008,3 hPa 0,0 l/m 0 min 0 min 0 W/m 23,0 km/h (4 Bft) 93,62 %
24.02.2017 07:14 3,1 C 2,8 C 1,1 C 93 % 15 lf 1008,3 hPa 0,0 l/m 0 min 0 min 0 W/m 16,7 km/h (3 Bft) 95,65 %
24.02.2017 07:16 3,1 C 2,8 C 1,1 C 93 % 15 lf 1008,3 hPa 0,0 l/m 0 min 0 min 7 W/m 23,0 km/h (4 Bft) 93,62 %
24.02.2017 07:18 3,1 C 2,8 C 1,1 C 93 % 14 lf 1008,4 hPa 0,0 l/m 0 min 0 min 7 W/m 20,9 km/h (4 Bft) 93,62 %
24.02.2017 07:20 3,1 C 2,8 C 1,1 C 93 % 14 lf 1008,4 hPa 0,0 l/m 0 min 0 min 9 W/m 23,0 km/h (4 Bft) 91,49 %
24.02.2017 07:22 3,0 C 2,8 C 1,1 C 93 % 14 lf 1008,3 hPa 0,0 l/m 0 min 0 min 9 W/m 16,7 km/h (3 Bft) 95,74 %
24.02.2017 07:24 3,0 C 2,8 C 1,1 C 93 % 14 lf 1008,5 hPa 0,0 l/m 0 min 0 min 9 W/m 23,0 km/h (4 Bft) 89,36 %
24.02.2017 07:26 3,0 C 2,8 C 1,1 C 93 % 13 lf 1008,5 hPa 0,0 l/m 0 min 0 min 13 W/m 20,9 km/h (4 Bft) 95,65 %
24.02.2017 07:28 3,0 C 2,2 C 1,1 C 93 % 12 lf 1008,6 hPa 0,0 l/m 0 min 0 min 13 W/m 18,8 km/h (3 Bft) 93,62 %
24.02.2017 07:30 3,0 C 2,2 C 1,1 C 93 % 12 lf 1008,6 hPa 0,0 l/m 0 min 0 min 14 W/m 18,8 km/h (3 Bft) 93,62 %
24.02.2017 07:32 2,9 C 2,2 C 1,1 C 93 % 11 lf 1008,6 hPa 0,0 l/m 0 min 0 min 14 W/m 23,0 km/h (4 Bft) 89,36 %
24.02.2017 07:34 2,9 C 2,2 C 1,1 C 93 % 11 lf 1008,7 hPa 0,0 l/m 0 min 0 min 15 W/m 14,6 km/h (3 Bft) 93,62 %
24.02.2017 07:36 2,9 C 2,2 C 1,1 C 93 % 11 lf 1008,7 hPa 0,0 l/m 0 min 0 min 16 W/m 14,6 km/h (3 Bft) 88,46 %
24.02.2017 07:38 2,9 C 2,2 C 1,1 C 93 % 11 lf 1008,6 hPa 0,0 l/m 0 min 0 min 16 W/m 14,6 km/h (3 Bft) 85,37 %
24.02.2017 07:40 2,9 C 2,2 C 1,1 C 93 % 10 lf 1008,7 hPa 0,0 l/m 0 min 0 min 15 W/m 27,2 km/h (4 Bft) 93,62 %
24.02.2017 07:42 2,9 C 2,8 C 1,1 C 93 % 9 lf 1008,7 hPa 0,0 l/m 0 min 0 min 16 W/m 23,0 km/h (4 Bft) 89,36 %
24.02.2017 07:44 2,9 C 2,8 C 1,1 C 93 % 9 lf 1008,8 hPa 0,0 l/m 0 min 0 min 17 W/m 23,0 km/h (4 Bft) 91,49 %
24.02.2017 07:46 2,8 C 2,8 C 1,1 C 93 % 8 lf 1008,8 hPa 0,0 l/m 2 min 0 min 20 W/m 23,0 km/h (4 Bft) 95,74 %
24.02.2017 07:48 2,8 C 2,8 C 1,1 C 93 % 7 lf 1008,8 hPa 0,0 l/m 2 min 0 min 21 W/m 23,0 km/h (4 Bft) 93,48 %
24.02.2017 07:50 2,8 C 2,8 C 1,1 C 93 % 5 lf 1008,9 hPa 0,0 l/m 2 min 0 min 23 W/m 23,0 km/h (4 Bft) 91,49 %
24.02.2017 07:52 2,8 C 2,8 C 1,1 C 93 % 4 lf 1008,9 hPa 0,0 l/m 0 min 0 min 25 W/m 14,6 km/h (3 Bft) 91,49 %
24.02.2017 07:54 2,8 C 2,8 C 1,1 C 93 % 4 lf 1008,9 hPa 0,0 l/m 2 min 0 min 28 W/m 16,7 km/h (3 Bft) 89,36 %
24.02.2017 07:56 2,8 C 2,8 C 1,1 C 93 % 3 lf 1009,0 hPa 0,0 l/m 2 min 0 min 31 W/m 16,7 km/h (3 Bft) 91,49 %
24.02.2017 07:58 2,8 C 2,8 C 1,1 C 93 % 3 lf 1009,1 hPa 0,0 l/m 2 min 0 min 35 W/m 16,7 km/h (3 Bft) 91,49 %
24.02.2017 08:00 2,8 C 2,8 C 1,1 C 93 % 2 lf 1009,2 hPa 0,0 l/m 2 min 0 min 41 W/m 12,6 km/h (3 Bft) 95,65 %
24.02.2017 08:02 2,8 C 2,8 C 1,1 C 93 % 2 lf 1009,2 hPa 0,0 l/m 2 min 0 min 47 W/m 20,9 km/h (4 Bft) 95,74 %
24.02.2017 08:04 2,8 C 2,8 C 1,1 C 93 % 2 lf 1009,2 hPa 0,0 l/m 2 min 0 min 52 W/m 14,6 km/h (3 Bft) 97,87 %
24.02.2017 08:06 2,8 C 2,8 C 1,1 C 93 % 1 lf 1009,2 hPa 0,0 l/m 2 min 0 min 56 W/m 23,0 km/h (4 Bft) 91,49 %
24.02.2017 08:08 2,8 C 3,3 C 1,1 C 93 % 1 lf 1009,2 hPa 0,0 l/m 2 min 0 min 57 W/m 18,8 km/h (3 Bft) 95,74 %
24.02.2017 08:10 2,8 C 3,3 C 1,1 C 93 % 0 lf 1009,2 hPa 0,0 l/m 2 min 0 min 58 W/m 16,7 km/h (3 Bft) 97,87 %
24.02.2017 08:12 2,8 C 3,3 C 1,1 C 93 % 0 lf 1009,2 hPa 0,0 l/m 2 min 0 min 62 W/m 14,6 km/h (3 Bft) 91,30 %
24.02.2017 08:14 2,9 C 3,3 C 1,1 C 93 % 0 lf 1009,2 hPa 0,0 l/m 2 min 0 min 64 W/m 20,9 km/h (4 Bft) 93,62 %
24.02.2017 08:16 2,9 C 3,3 C 1,1 C 93 % 0 lf 1009,3 hPa 0,0 l/m 2 min 0 min 66 W/m 20,9 km/h (4 Bft) 97,87 %
24.02.2017 08:18 2,9 C 3,3 C 1,1 C 93 % 0 lf 1009,4 hPa 0,0 l/m 2 min 0 min 68 W/m 14,6 km/h (3 Bft) 97,87 %
24.02.2017 08:20 2,9 C 3,3 C 1,1 C 93 % 0 lf 1009,4 hPa 0,0 l/m 2 min 0 min 67 W/m 14,6 km/h (3 Bft) 97,87 %
24.02.2017 08:22 2,9 C 3,3 C 1,1 C 93 % 0 lf 1009,5 hPa 0,0 l/m 0 min 0 min 54 W/m 14,6 km/h (3 Bft) 93,62 %
24.02.2017 08:24 2,9 C 3,3 C 1,1 C 93 % 0 lf 1009,5 hPa 0,0 l/m 0 min 0 min 51 W/m 14,6 km/h (3 Bft) 97,83 %
24.02.2017 08:26 2,9 C 3,3 C 1,1 C 93 % 0 lf 1009,5 hPa 0,0 l/m 0 min 0 min 65 W/m 16,7 km/h (3 Bft) 97,87 %
24.02.2017 08:28 2,9 C 3,3 C 1,1 C 93 % 0 lf 1009,6 hPa 0,0 l/m 0 min 0 min 61 W/m 25,1 km/h (4 Bft) 91,49 %
24.02.2017 08:30 2,9 C 3,3 C 1,7 C 93 % 0 lf 1009,5 hPa 0,0 l/m 0 min 0 min 63 W/m 27,2 km/h (4 Bft) 95,74 %
24.02.2017 08:32 3,0 C 3,3 C 1,7 C 93 % 0 lf 1009,6 hPa 0,0 l/m 2 min 0 min 94 W/m 20,9 km/h (4 Bft) 97,87 %
24.02.2017 08:34 3,0 C 3,3 C 1,7 C 93 % 0 lf 1009,7 hPa 0,0 l/m 2 min 0 min 115 W/m 18,8 km/h (3 Bft) 95,74 %
24.02.2017 08:36 3,1 C 3,9 C 1,7 C 93 % 0 lf 1009,7 hPa 0,0 l/m 2 min 0 min 127 W/m 18,8 km/h (3 Bft) 95,65 %
24.02.2017 08:38 3,1 C 3,9 C 1,7 C 93 % 0 lf 1009,8 hPa 0,0 l/m 2 min 0 min 133 W/m 18,8 km/h (3 Bft) 95,74 %
24.02.2017 08:40 3,1 C 3,9 C 1,7 C 93 % 0 lf 1009,8 hPa 0,0 l/m 2 min 0 min 118 W/m 18,8 km/h (3 Bft) 95,74 %
24.02.2017 08:42 3,1 C 3,9 C 1,7 C 93 % 0 lf 1009,8 hPa 0,0 l/m 2 min 0 min 124 W/m 16,7 km/h (3 Bft) 100,00 %
24.02.2017 08:44 3,2 C 4,4 C 1,7 C 93 % 0 lf 1009,9 hPa 0,0 l/m 2 min 0 min 150 W/m 23,0 km/h (4 Bft) 97,87 %
24.02.2017 08:46 3,2 C 4,4 C 2,2 C 93 % 0 lf 1009,9 hPa 0,0 l/m 2 min 0 min 151 W/m 18,8 km/h (3 Bft) 93,48 %
24.02.2017 08:48 3,3 C 4,4 C 2,2 C 93 % 0 lf 1009,9 hPa 0,0 l/m 2 min 0 min 146 W/m 20,9 km/h (4 Bft) 97,87 %
24.02.2017 08:50 3,3 C 4,4 C 2,2 C 93 % 0 lf 1010,0 hPa 0,0 l/m 0 min 0 min 86 W/m 20,9 km/h (4 Bft) 97,87 %
24.02.2017 08:52 3,3 C 4,4 C 2,2 C 93 % 0 lf 1010,1 hPa 0,0 l/m 0 min 0 min 88 W/m 16,7 km/h (3 Bft) 100,00 %
24.02.2017 08:54 3,3 C 4,4 C 1,7 C 93 % 0 lf 1010,1 hPa 0,0 l/m 0 min 0 min 94 W/m 20,9 km/h (4 Bft) 97,87 %
24.02.2017 08:56 3,4 C 4,4 C 2,2 C 93 % 0 lf 1010,1 hPa 0,0 l/m 0 min 0 min 94 W/m 23,0 km/h (4 Bft) 95,74 %
24.02.2017 08:58 3,4 C 4,4 C 2,2 C 93 % 0 lf 1010,2 hPa 0,0 l/m 2 min 0 min 139 W/m 35,6 km/h (5 Bft) 97,83 %
24.02.2017 09:00 3,4 C 5,0 C 2,2 C 93 % 0 lf 1010,3 hPa 0,0 l/m 2 min 0 min 177 W/m 25,1 km/h (4 Bft) 97,87 %
24.02.2017 09:02 3,5 C 6,7 C 2,2 C 93 % 0 lf 1010,3 hPa 0,0 l/m 2 min 0 min 202 W/m 18,8 km/h (3 Bft) 95,74 %
24.02.2017 09:04 3,5 C 7,8 C 2,2 C 93 % 0 lf 1010,3 hPa 0,0 l/m 2 min 0 min 184 W/m 20,9 km/h (4 Bft) 97,87 %
24.02.2017 09:06 3,7 C 8,3 C 2,8 C 93 % 0 lf 1010,3 hPa 0,0 l/m 2 min 0 min 192 W/m 18,8 km/h (3 Bft) 97,87 %
24.02.2017 09:08 3,8 C 8,9 C 2,8 C 93 % 0 lf 1010,4 hPa 0,0 l/m 2 min 0 min 227 W/m 18,8 km/h (3 Bft) 100,00 %
24.02.2017 09:10 3,9 C 10,0 C 2,8 C 93 % 0 lf 1010,4 hPa 0,0 l/m 2 min 0 min 235 W/m 14,6 km/h (3 Bft) 93,48 %
24.02.2017 09:12 4,1 C 10,0 C 2,8 C 93 % 0 lf 1010,4 hPa 0,0 l/m 2 min 0 min 224 W/m 25,1 km/h (4 Bft) 97,87 %
24.02.2017 09:14 4,2 C 9,4 C 2,8 C 93 % 0 lf 1010,4 hPa 0,0 l/m 2 min 0 min 205 W/m 25,1 km/h (4 Bft) 100,00 %
24.02.2017 09:16 4,2 C 9,4 C 2,8 C 92 % 0 lf 1010,5 hPa 0,0 l/m 2 min 0 min 211 W/m 23,0 km/h (4 Bft) 100,00 %
24.02.2017 09:18 4,2 C 9,4 C 2,8 C 92 % 0 lf 1010,5 hPa 0,0 l/m 2 min 0 min 215 W/m 27,2 km/h (4 Bft) 100,00 %
24.02.2017 09:20 4,3 C 8,9 C 2,8 C 92 % 0 lf 1010,5 hPa 0,0 l/m 2 min 0 min 175 W/m 25,1 km/h (4 Bft) 93,62 %
24.02.2017 09:22 4,3 C 8,3 C 3,3 C 92 % 0 lf 1010,4 hPa 0,0 l/m 2 min 0 min 150 W/m 29,3 km/h (5 Bft) 100,00 %
24.02.2017 09:24 4,3 C 8,3 C 3,3 C 91 % 0 lf 1010,6 hPa 0,0 l/m 2 min 0 min 216 W/m 18,8 km/h (3 Bft) 97,87 %
24.02.2017 09:26 4,4 C 9,4 C 3,9 C 91 % 0 lf 1010,7 hPa 0,0 l/m 2 min 0 min 253 W/m 18,8 km/h (3 Bft) 97,87 %
24.02.2017 09:28 4,5 C 10,0 C 3,9 C 91 % 0 lf 1010,8 hPa 0,0 l/m 2 min 0 min 316 W/m 23,0 km/h (4 Bft) 95,74 %
24.02.2017 09:30 4,6 C 11,1 C 4,4 C 91 % 0 lf 1010,8 hPa 0,0 l/m 2 min 0 min 324 W/m 16,7 km/h (3 Bft) 95,74 %
24.02.2017 09:32 4,7 C 11,7 C 4,4 C 90 % 0 lf 1010,8 hPa 0,0 l/m 2 min 0 min 314 W/m 23,0 km/h (4 Bft) 93,62 %
24.02.2017 09:34 4,8 C 11,1 C 4,4 C 90 % 0 lf 1010,9 hPa 0,0 l/m 2 min 0 min 283 W/m 23,0 km/h (4 Bft) 95,65 %
24.02.2017 09:36 4,9 C 10,0 C 4,4 C 89 % 0 lf 1010,9 hPa 0,0 l/m 2 min 0 min 189 W/m 25,1 km/h (4 Bft) 97,87 %
24.02.2017 09:38 4,9 C 8,3 C 4,4 C 89 % 0 lf 1010,9 hPa 0,0 l/m 0 min 0 min 148 W/m 25,1 km/h (4 Bft) 95,74 %
24.02.2017 09:40 4,9 C 7,8 C 4,4 C 88 % 0 lf 1010,9 hPa 0,0 l/m 0 min 0 min 157 W/m 29,3 km/h (5 Bft) 89,36 %
24.02.2017 09:42 4,8 C 7,2 C 3,9 C 88 % 0 lf 1010,9 hPa 0,0 l/m 0 min 0 min 144 W/m 23,0 km/h (4 Bft) 95,74 %
24.02.2017 09:44 4,8 C 6,7 C 3,9 C 87 % 0 lf 1010,9 hPa 0,0 l/m 0 min 0 min 144 W/m 18,8 km/h (3 Bft) 91,49 %
24.02.2017 09:46 4,7 C 6,7 C 3,9 C 88 % 0 lf 1011,0 hPa 0,0 l/m 0 min 0 min 137 W/m 12,6 km/h (3 Bft) 93,48 %
24.02.2017 09:48 4,7 C 6,1 C 3,9 C 88 % 0 lf 1011,0 hPa 0,0 l/m 0 min 0 min 145 W/m 18,8 km/h (3 Bft) 95,74 %
24.02.2017 09:50 4,7 C 6,7 C 3,9 C 88 % 0 lf 1011,1 hPa 0,0 l/m 0 min 0 min 162 W/m 16,7 km/h (3 Bft) 95,74 %
24.02.2017 09:52 4,7 C 7,2 C 4,4 C 88 % 0 lf 1011,1 hPa 0,0 l/m 0 min 0 min 168 W/m 20,9 km/h (4 Bft) 95,74 %
24.02.2017 09:54 4,7 C 7,2 C 3,9 C 88 % 0 lf 1011,1 hPa 0,0 l/m 0 min 0 min 139 W/m 16,7 km/h (3 Bft) 93,62 %
24.02.2017 09:56 4,7 C 6,7 C 3,9 C 88 % 0 lf 1011,1 hPa 0,0 l/m 0 min 0 min 152 W/m 14,6 km/h (3 Bft) 97,87 %
24.02.2017 09:58 4,6 C 7,2 C 3,9 C 88 % 0 lf 1011,3 hPa 0,0 l/m 0 min 0 min 175 W/m 20,9 km/h (4 Bft) 93,48 %
24.02.2017 10:00 4,6 C 7,2 C 4,4 C 88 % 0 lf 1011,3 hPa 0,0 l/m 2 min 0 min 211 W/m 25,1 km/h (4 Bft) 91,49 %
24.02.2017 10:02 4,6 C 7,8 C 4,4 C 88 % 0 lf 1011,4 hPa 0,0 l/m 2 min 0 min 209 W/m 20,9 km/h (4 Bft) 95,74 %
24.02.2017 10:04 4,7 C 8,9 C 4,4 C 88 % 0 lf 1011,4 hPa 0,0 l/m 2 min 0 min 241 W/m 14,6 km/h (3 Bft) 97,87 %
24.02.2017 10:06 4,8 C 9,4 C 4,4 C 88 % 0 lf 1011,5 hPa 0,0 l/m 2 min 0 min 214 W/m 12,6 km/h (3 Bft) 93,62 %
24.02.2017 10:08 4,8 C 8,3 C 4,4 C 88 % 0 lf 1011,5 hPa 0,0 l/m 0 min 0 min 141 W/m 18,8 km/h (3 Bft) 95,65 %
24.02.2017 10:10 4,8 C 7,8 C 3,9 C 87 % 0 lf 1011,5 hPa 0,0 l/m 0 min 0 min 128 W/m 20,9 km/h (4 Bft) 95,74 %
24.02.2017 10:12 4,8 C 7,8 C 3,9 C 87 % 0 lf 1011,4 hPa 0,0 l/m 0 min 0 min 129 W/m 12,6 km/h (3 Bft) 89,36 %
24.02.2017 10:14 4,8 C 7,8 C 3,9 C 87 % 0 lf 1011,6 hPa 0,0 l/m 0 min 0 min 137 W/m 14,6 km/h (3 Bft) 93,62 %
24.02.2017 10:16 4,8 C 8,9 C 3,9 C 87 % 0 lf 1011,6 hPa 0,0 l/m 0 min 0 min 188 W/m 8,4 km/h (2 Bft) 97,87 %
24.02.2017 10:18 4,8 C 10,6 C 3,9 C 87 % 0 lf 1011,6 hPa 0,0 l/m 2 min 0 min 294 W/m 16,7 km/h (3 Bft) 95,74 %
24.02.2017 10:20 4,9 C 12,8 C 3,9 C 88 % 0 lf 1011,7 hPa 0,0 l/m 2 min 0 min 349 W/m 10,5 km/h (2 Bft) 97,83 %
24.02.2017 10:22 5,2 C 13,9 C 4,4 C 88 % 0 lf 1011,7 hPa 0,0 l/m 2 min 0 min 386 W/m 12,6 km/h (3 Bft) 95,74 %
24.02.2017 10:24 5,3 C 15,0 C 4,4 C 87 % 0 lf 1011,7 hPa 0,0 l/m 2 min 0 min 400 W/m 16,7 km/h (3 Bft) 97,87 %
24.02.2017 10:26 5,6 C 15,6 C 4,4 C 87 % 0 lf 1011,7 hPa 0,0 l/m 2 min 0 min 405 W/m 14,6 km/h (3 Bft) 97,87 %
24.02.2017 10:28 5,7 C 16,7 C 5,0 C 86 % 0 lf 1011,8 hPa 0,0 l/m 2 min 0 min 417 W/m 18,8 km/h (3 Bft) 93,62 %
24.02.2017 10:30 5,9 C 17,2 C 5,0 C 86 % 0 lf 1011,8 hPa 0,0 l/m 2 min 0 min 406 W/m 18,8 km/h (3 Bft) 95,74 %
24.02.2017 10:32 6,0 C 16,1 C 5,0 C 85 % 0 lf 1011,8 hPa 0,0 l/m 2 min 0 min 382 W/m 27,2 km/h (4 Bft) 95,65 %
24.02.2017 10:34 6,1 C 16,1 C 5,0 C 84 % 0 lf 1011,8 hPa 0,0 l/m 2 min 0 min 386 W/m 25,1 km/h (4 Bft) 97,87 %
24.02.2017 10:36 6,1 C 16,1 C 5,0 C 83 % 0 lf 1011,9 hPa 0,0 l/m 2 min 0 min 436 W/m 25,1 km/h (4 Bft) 97,87 %
24.02.2017 10:38 6,2 C 16,7 C 5,6 C 84 % 0 lf 1012,0 hPa 0,0 l/m 2 min 0 min 427 W/m 20,9 km/h (4 Bft) 97,87 %
24.02.2017 10:40 6,2 C 15,0 C 5,6 C 82 % 0 lf 1012,0 hPa 0,0 l/m 2 min 0 min 454 W/m 23,0 km/h (4 Bft) 95,74 %
24.02.2017 10:42 6,2 C 15,0 C 5,6 C 81 % 0 lf 1012,0 hPa 0,0 l/m 2 min 0 min 426 W/m 14,6 km/h (3 Bft) 95,74 %
24.02.2017 10:44 6,3 C 14,4 C 5,6 C 81 % 0 lf 1012,0 hPa 0,0 l/m 2 min 0 min 371 W/m 23,0 km/h (4 Bft) 97,83 %
24.02.2017 10:46 6,4 C 14,4 C 5,6 C 81 % 0 lf 1012,0 hPa 0,0 l/m 2 min 0 min 377 W/m 14,6 km/h (3 Bft) 93,62 %
24.02.2017 10:48 6,4 C 13,9 C 5,6 C 81 % 0 lf 1012,1 hPa 0,0 l/m 2 min 0 min 304 W/m 16,7 km/h (3 Bft) 97,87 %
24.02.2017 10:50 6,4 C 13,9 C 5,6 C 80 % 0 lf 1012,1 hPa 0,0 l/m 2 min 0 min 311 W/m 18,8 km/h (3 Bft) 97,87 %
24.02.2017 10:52 6,4 C 13,3 C 5,6 C 80 % 0 lf 1012,2 hPa 0,0 l/m 2 min 0 min 379 W/m 18,8 km/h (3 Bft) 97,87 %
24.02.2017 10:54 6,4 C 12,8 C 5,6 C 80 % 0 lf 1012,2 hPa 0,0 l/m 0 min 0 min 217 W/m 20,9 km/h (4 Bft) 95,65 %
24.02.2017 10:56 6,3 C 11,7 C 5,6 C 78 % 0 lf 1012,2 hPa 0,0 l/m 2 min 0 min 247 W/m 18,8 km/h (3 Bft) 97,87 %
24.02.2017 10:58 6,3 C 10,6 C 5,6 C 79 % 0 lf 1012,3 hPa 0,0 l/m 0 min 0 min 133 W/m 14,6 km/h (3 Bft) 93,62 %
24.02.2017 11:00 6,2 C 9,4 C 5,6 C 79 % 0 lf 1012,3 hPa 0,0 l/m 0 min 0 min 151 W/m 16,7 km/h (3 Bft) 95,74 %
24.02.2017 11:02 6,1 C 11,1 C 5,6 C 79 % 0 lf 1012,3 hPa 0,0 l/m 2 min 0 min 277 W/m 16,7 km/h (3 Bft) 93,62 %
24.02.2017 11:04 6,3 C 12,8 C 6,7 C 80 % 0 lf 1012,3 hPa 0,0 l/m 2 min 0 min 541 W/m 16,7 km/h (3 Bft) 91,49 %
24.02.2017 11:06 6,4 C 13,9 C 6,7 C 79 % 0 lf 1012,4 hPa 0,0 l/m 2 min 0 min 533 W/m 16,7 km/h (3 Bft) 97,83 %
24.02.2017 11:08 6,7 C 15,6 C 7,2 C 79 % 0 lf 1012,3 hPa 0,0 l/m 2 min 0 min 497 W/m 10,5 km/h (2 Bft) 95,74 %
24.02.2017 11:10 6,9 C 16,7 C 7,2 C 78 % 0 lf 1012,3 hPa 0,0 l/m 2 min 0 min 486 W/m 16,7 km/h (3 Bft) 97,87 %
24.02.2017 11:12 6,9 C 16,1 C 7,2 C 77 % 0 lf 1012,3 hPa 0,0 l/m 2 min 0 min 439 W/m 23,0 km/h (4 Bft) 97,87 %
24.02.2017 11:14 6,8 C 15,0 C 6,7 C 77 % 0 lf 1012,4 hPa 0,0 l/m 2 min 0 min 473 W/m 20,9 km/h (4 Bft) 97,87 %
24.02.2017 11:16 6,7 C 14,4 C 6,7 C 77 % 0 lf 1012,5 hPa 0,0 l/m 2 min 0 min 474 W/m 20,9 km/h (4 Bft) 95,74 %
24.02.2017 11:18 6,8 C 15,0 C 7,2 C 77 % 0 lf 1012,4 hPa 0,0 l/m 2 min 0 min 484 W/m 18,8 km/h (3 Bft) 97,83 %
24.02.2017 11:20 6,9 C 13,3 C 7,2 C 77 % 0 lf 1012,5 hPa 0,0 l/m 2 min 0 min 451 W/m 18,8 km/h (3 Bft) 97,87 %
24.02.2017 11:22 6,9 C 12,8 C 7,2 C 77 % 0 lf 1012,5 hPa 0,0 l/m 0 min 0 min 202 W/m 16,7 km/h (3 Bft) 95,74 %
24.02.2017 11:24 6,8 C 11,7 C 6,7 C 75 % 0 lf 1012,5 hPa 0,0 l/m 0 min 0 min 193 W/m 23,0 km/h (4 Bft) 97,87 %
24.02.2017 11:26 6,8 C 12,8 C 7,2 C 76 % 0 lf 1012,5 hPa 0,0 l/m 0 min 0 min 194 W/m 20,9 km/h (4 Bft) 95,74 %
24.02.2017 11:28 6,8 C 13,9 C 7,2 C 76 % 0 lf 1012,5 hPa 0,0 l/m 2 min 0 min 530 W/m 23,0 km/h (4 Bft) 97,87 %
24.02.2017 11:30 6,7 C 12,8 C 6,7 C 75 % 0 lf 1012,6 hPa 0,0 l/m 2 min 0 min 561 W/m 25,1 km/h (4 Bft) 97,83 %
24.02.2017 11:32 6,7 C 13,9 C 7,2 C 76 % 0 lf 1012,6 hPa 0,0 l/m 2 min 0 min 561 W/m 18,8 km/h (3 Bft) 97,87 %
24.02.2017 11:34 6,9 C 13,9 C 7,2 C 76 % 0 lf 1012,6 hPa 0,0 l/m 2 min 0 min 561 W/m 16,7 km/h (3 Bft) 97,87 %
24.02.2017 11:36 6,9 C 11,7 C 6,7 C 74 % 0 lf 1012,7 hPa 0,0 l/m 2 min 0 min 290 W/m 20,9 km/h (4 Bft) 91,49 %
24.02.2017 11:38 6,9 C 11,1 C 7,2 C 74 % 0 lf 1012,6 hPa 0,0 l/m 0 min 0 min 172 W/m 16,7 km/h (3 Bft) 95,74 %
24.02.2017 11:40 6,9 C 10,6 C 7,2 C 75 % 0 lf 1012,6 hPa 0,0 l/m 0 min 0 min 207 W/m 6,3 km/h (2 Bft) 100,00 %
24.02.2017 11:42 6,8 C 12,2 C 7,2 C 75 % 0 lf 1012,7 hPa 0,0 l/m 0 min 0 min 201 W/m 10,5 km/h (2 Bft) 97,83 %
24.02.2017 11:44 6,9 C 13,3 C 7,8 C 74 % 0 lf 1012,7 hPa 0,0 l/m 0 min 0 min 248 W/m 18,8 km/h (3 Bft) 100,00 %
24.02.2017 11:46 7,0 C 15,6 C 8,3 C 76 % 0 lf 1012,7 hPa 0,0 l/m 2 min 0 min 665 W/m 18,8 km/h (3 Bft) 97,87 %
24.02.2017 11:48 7,2 C 17,8 C 8,9 C 74 % 0 lf 1012,7 hPa 0,0 l/m 2 min 0 min 653 W/m 14,6 km/h (3 Bft) 95,74 %
24.02.2017 11:50 7,4 C 16,1 C 8,9 C 73 % 0 lf 1012,7 hPa 0,0 l/m 2 min 0 min 590 W/m 16,7 km/h (3 Bft) 100,00 %
24.02.2017 11:52 7,3 C 13,3 C 7,8 C 71 % 0 lf 1012,7 hPa 0,0 l/m 0 min 0 min 187 W/m 23,0 km/h (4 Bft) 97,87 %
24.02.2017 11:54 7,2 C 12,2 C 7,8 C 70 % 0 lf 1012,7 hPa 0,0 l/m 0 min 0 min 148 W/m 14,6 km/h (3 Bft) 93,48 %
24.02.2017 11:56 7,0 C 10,6 C 7,2 C 68 % 0 lf 1012,7 hPa 0,0 l/m 0 min 0 min 154 W/m 16,7 km/h (3 Bft) 97,87 %
24.02.2017 11:58 6,9 C 10,0 C 6,7 C 70 % 0 lf 1012,7 hPa 0,0 l/m 0 min 0 min 172 W/m 18,8 km/h (3 Bft) 97,87 %
24.02.2017 12:00 6,8 C 9,4 C 6,7 C 72 % 0 lf 1012,8 hPa 0,0 l/m 0 min 0 min 184 W/m 20,9 km/h (4 Bft) 95,74 %
24.02.2017 12:02 6,8 C 10,0 C 7,2 C 75 % 0 lf 1012,8 hPa 0,0 l/m 0 min 0 min 191 W/m 16,7 km/h (3 Bft) 93,62 %
24.02.2017 12:06 6,7 C 9,4 C 7,2 C 73 % 0 lf 1012,8 hPa 0,0 l/m 0 min 0 min 176 W/m 16,7 km/h (3 Bft) 94,17 %
24.02.2017 12:08 6,7 C 9,4 C 7,2 C 73 % 0 lf 1012,8 hPa 0,0 l/m 0 min 0 min 187 W/m 18,8 km/h (3 Bft) 95,74 %
24.02.2017 12:10 6,7 C 9,4 C 7,2 C 74 % 0 lf 1012,8 hPa 0,0 l/m 0 min 0 min 211 W/m 18,8 km/h (3 Bft) 95,74 %
24.02.2017 12:12 6,8 C 10,0 C 7,8 C 75 % 0 lf 1012,9 hPa 0,0 l/m 0 min 0 min 212 W/m 12,6 km/h (3 Bft) 93,48 %
24.02.2017 12:14 6,9 C 10,6 C 7,8 C 74 % 0 lf 1012,8 hPa 0,0 l/m 0 min 0 min 226 W/m 8,4 km/h (2 Bft) 95,74 %
24.02.2017 12:16 7,1 C 13,9 C 8,3 C 73 % 0 lf 1012,8 hPa 0,0 l/m 2 min 0 min 289 W/m 18,8 km/h (3 Bft) 93,62 %
24.02.2017 12:18 7,4 C 14,4 C 8,9 C 71 % 0 lf 1012,8 hPa 0,0 l/m 2 min 0 min 672 W/m 18,8 km/h (3 Bft) 95,74 %
24.02.2017 12:20 7,6 C 13,9 C 8,9 C 71 % 0 lf 1012,9 hPa 0,0 l/m 2 min 0 min 326 W/m 23,0 km/h (4 Bft) 93,62 %
24.02.2017 12:22 7,7 C 16,1 C 8,9 C 71 % 0 lf 1012,8 hPa 0,0 l/m 2 min 0 min 425 W/m 10,5 km/h (2 Bft) 93,62 %
24.02.2017 12:24 8,1 C 17,8 C 8,9 C 71 % 0 lf 1012,7 hPa 0,0 l/m 2 min 0 min 661 W/m 18,8 km/h (3 Bft) 95,65 %
24.02.2017 12:26 8,2 C 18,9 C 8,9 C 68 % 0 lf 1012,8 hPa 0,0 l/m 2 min 0 min 662 W/m 25,1 km/h (4 Bft) 95,74 %
24.02.2017 12:28 8,1 C 20,0 C 9,4 C 68 % 0 lf 1012,8 hPa 0,0 l/m 2 min 0 min 710 W/m 18,8 km/h (3 Bft) 93,62 %
24.02.2017 12:30 8,1 C 18,3 C 9,4 C 68 % 0 lf 1012,9 hPa 0,0 l/m 2 min 0 min 740 W/m 20,9 km/h (4 Bft) 93,62 %
24.02.2017 12:32 8,0 C 15,6 C 8,9 C 68 % 0 lf 1012,9 hPa 0,0 l/m 2 min 0 min 297 W/m 23,0 km/h (4 Bft) 89,36 %
24.02.2017 12:34 7,8 C 13,9 C 8,3 C 68 % 0 lf 1012,9 hPa 0,0 l/m 0 min 0 min 200 W/m 16,7 km/h (3 Bft) 93,62 %
24.02.2017 12:36 7,8 C 12,2 C 8,3 C 70 % 0 lf 1012,9 hPa 0,0 l/m 0 min 0 min 154 W/m 12,6 km/h (3 Bft) 95,65 %
24.02.2017 12:38 7,7 C 11,1 C 7,8 C 70 % 0 lf 1013,0 hPa 0,0 l/m 0 min 0 min 103 W/m 12,6 km/h (3 Bft) 95,74 %
24.02.2017 12:40 7,6 C 9,4 C 7,2 C 70 % 0 lf 1012,9 hPa 0,0 l/m 0 min 0 min 84 W/m 10,5 km/h (2 Bft) 97,87 %
24.02.2017 12:42 7,3 C 8,9 C 6,7 C 71 % 0 lf 1013,0 hPa 0,0 l/m 0 min 0 min 74 W/m 14,6 km/h (3 Bft) 95,74 %
24.02.2017 12:44 7,2 C 8,3 C 6,7 C 71 % 0 lf 1013,0 hPa 0,0 l/m 0 min 0 min 78 W/m 14,6 km/h (3 Bft) 95,74 %
24.02.2017 12:46 7,1 C 8,3 C 6,7 C 72 % 0 lf 1013,1 hPa 0,0 l/m 0 min 0 min 124 W/m 16,7 km/h (3 Bft) 97,87 %
24.02.2017 12:48 7,0 C 8,3 C 6,7 C 73 % 0 lf 1013,0 hPa 0,0 l/m 0 min 2 min 92 W/m 16,7 km/h (3 Bft) 97,83 %
24.02.2017 12:50 6,9 C 8,3 C 6,7 C 73 % 4 lf 1013,1 hPa 0,0 l/m 0 min 2 min 99 W/m 16,7 km/h (3 Bft) 100,00 %
24.02.2017 12:52 6,9 C 7,8 C 6,1 C 73 % 4 lf 1013,1 hPa 0,0 l/m 0 min 2 min 129 W/m 23,0 km/h (4 Bft) 100,00 %
24.02.2017 12:54 6,8 C 7,8 C 6,7 C 74 % 1 lf 1013,1 hPa 0,0 l/m 0 min 2 min 150 W/m 16,7 km/h (3 Bft) 100,00 %
24.02.2017 12:56 6,7 C 8,3 C 6,7 C 74 % 0 lf 1013,1 hPa 0,0 l/m 0 min 0 min 178 W/m 16,7 km/h (3 Bft) 100,00 %
24.02.2017 12:58 6,7 C 8,3 C 6,7 C 74 % 0 lf 1013,2 hPa 0,0 l/m 0 min 0 min 162 W/m 20,9 km/h (4 Bft) 100,00 %
24.02.2017 13:00 6,6 C 8,3 C 6,1 C 72 % 0 lf 1013,2 hPa 0,0 l/m 0 min 0 min 125 W/m 18,8 km/h (3 Bft) 97,87 %
24.02.2017 13:02 6,5 C 7,8 C 6,1 C 72 % 0 lf 1013,2 hPa 0,0 l/m 0 min 0 min 98 W/m 20,9 km/h (4 Bft) 100,00 %
24.02.2017 13:04 6,4 C 7,8 C 5,6 C 72 % 0 lf 1013,3 hPa 0,0 l/m 0 min 0 min 85 W/m 20,9 km/h (4 Bft) 95,74 %
24.02.2017 13:06 6,4 C 7,2 C 5,6 C 74 % 0 lf 1013,3 hPa 0,0 l/m 0 min 0 min 83 W/m 29,3 km/h (5 Bft) 97,87 %
24.02.2017 13:08 6,3 C 7,2 C 5,6 C 75 % 1 lf 1013,3 hPa 0,0 l/m 0 min 0 min 102 W/m 27,2 km/h (4 Bft) 100,00 %
24.02.2017 13:10 6,2 C 7,2 C 5,6 C 76 % 0 lf 1013,4 hPa 0,0 l/m 0 min 0 min 126 W/m 20,9 km/h (4 Bft) 97,83 %
24.02.2017 13:12 6,1 C 7,2 C 5,6 C 78 % 0 lf 1013,4 hPa 0,2 l/m 0 min 0 min 140 W/m 31,4 km/h (5 Bft) 100,00 %
24.02.2017 13:14 5,9 C 6,7 C 5,6 C 78 % 0 lf 1013,5 hPa 0,0 l/m 0 min 0 min 134 W/m 29,3 km/h (5 Bft) 97,87 %
24.02.2017 13:16 5,7 C 6,7 C 5,6 C 79 % 1 lf 1013,5 hPa 0,0 l/m 0 min 0 min 127 W/m 25,1 km/h (4 Bft) 93,62 %
24.02.2017 13:18 5,6 C 6,7 C 5,0 C 80 % 1 lf 1013,5 hPa 0,0 l/m 0 min 0 min 127 W/m 23,0 km/h (4 Bft) 95,74 %
24.02.2017 13:20 5,5 C 6,7 C 5,6 C 81 % 0 lf 1013,5 hPa 0,0 l/m 0 min 0 min 147 W/m 23,0 km/h (4 Bft) 100,00 %
24.02.2017 13:22 5,4 C 6,7 C 5,6 C 81 % 0 lf 1013,6 hPa 0,0 l/m 0 min 0 min 166 W/m 18,8 km/h (3 Bft) 97,83 %
24.02.2017 13:24 5,4 C 6,7 C 5,6 C 81 % 0 lf 1013,6 hPa 0,0 l/m 0 min 0 min 173 W/m 27,2 km/h (4 Bft) 97,87 %
24.02.2017 13:26 5,4 C 6,7 C 5,6 C 82 % 0 lf 1013,6 hPa 0,0 l/m 0 min 0 min 164 W/m 18,8 km/h (3 Bft) 97,87 %
24.02.2017 13:28 5,4 C 6,7 C 5,6 C 82 % 0 lf 1013,6 hPa 0,0 l/m 0 min 0 min 148 W/m 20,9 km/h (4 Bft) 97,87 %
24.02.2017 13:30 5,4 C 6,7 C 5,6 C 83 % 0 lf 1013,6 hPa 0,0 l/m 0 min 0 min 135 W/m 25,1 km/h (4 Bft) 97,87 %
24.02.2017 13:32 5,3 C 6,7 C 5,6 C 83 % 0 lf 1013,6 hPa 0,0 l/m 0 min 0 min 127 W/m 27,2 km/h (4 Bft) 97,87 %
24.02.2017 13:34 5,2 C 6,1 C 5,6 C 83 % 0 lf 1013,5 hPa 0,0 l/m 0 min 2 min 129 W/m 25,1 km/h (4 Bft) 97,83 %
24.02.2017 13:36 5,2 C 6,1 C 5,6 C 84 % 0 lf 1013,6 hPa 0,0 l/m 0 min 0 min 143 W/m 23,0 km/h (4 Bft) 95,74 %
24.02.2017 13:38 5,1 C 6,1 C 5,6 C 83 % 0 lf 1013,5 hPa 0,0 l/m 0 min 0 min 152 W/m 12,6 km/h (3 Bft) 95,74 %
24.02.2017 13:40 5,0 C 6,7 C 5,6 C 84 % 0 lf 1013,5 hPa 0,0 l/m 0 min 0 min 152 W/m 14,6 km/h (3 Bft) 97,87 %
24.02.2017 13:42 4,9 C 6,7 C 5,0 C 84 % 0 lf 1013,6 hPa 0,0 l/m 0 min 0 min 140 W/m 14,6 km/h (3 Bft) 95,74 %
24.02.2017 13:44 4,9 C 7,2 C 5,0 C 84 % 0 lf 1013,7 hPa 0,0 l/m 0 min 0 min 120 W/m 10,5 km/h (2 Bft) 97,83 %
24.02.2017 13:46 5,0 C 10,6 C 5,0 C 84 % 0 lf 1013,7 hPa 0,0 l/m 0 min 0 min 240 W/m 16,7 km/h (3 Bft) 95,74 %
24.02.2017 13:48 5,2 C 12,8 C 5,0 C 84 % 0 lf 1013,6 hPa 0,0 l/m 2 min 0 min 516 W/m 12,6 km/h (3 Bft) 97,87 %
24.02.2017 13:50 5,5 C 14,4 C 5,6 C 84 % 0 lf 1013,6 hPa 0,0 l/m 2 min 0 min 508 W/m 16,7 km/h (3 Bft) 95,74 %
24.02.2017 13:52 5,8 C 15,0 C 5,6 C 83 % 0 lf 1013,6 hPa 0,0 l/m 2 min 0 min 515 W/m 16,7 km/h (3 Bft) 93,62 %
24.02.2017 13:54 5,9 C 16,1 C 6,1 C 82 % 0 lf 1013,7 hPa 0,0 l/m 2 min 0 min 537 W/m 14,6 km/h (3 Bft) 91,49 %
24.02.2017 13:56 6,1 C 15,6 C 6,1 C 81 % 0 lf 1013,6 hPa 0,0 l/m 2 min 0 min 529 W/m 14,6 km/h (3 Bft) 89,13 %
24.02.2017 13:58 6,1 C 13,9 C 6,1 C 80 % 0 lf 1013,6 hPa 0,0 l/m 2 min 0 min 468 W/m 14,6 km/h (3 Bft) 93,62 %
24.02.2017 14:00 6,2 C 13,9 C 6,7 C 80 % 0 lf 1013,7 hPa 0,0 l/m 2 min 0 min 468 W/m 14,6 km/h (3 Bft) 95,74 %
24.02.2017 14:02 6,3 C 12,2 C 6,7 C 81 % 0 lf 1013,6 hPa 0,0 l/m 2 min 0 min 348 W/m 14,6 km/h (3 Bft) 93,62 %
24.02.2017 14:04 6,4 C 11,7 C 7,2 C 80 % 0 lf 1013,5 hPa 0,0 l/m 2 min 0 min 302 W/m 23,0 km/h (4 Bft) 93,62 %
24.02.2017 14:06 6,4 C 11,1 C 7,2 C 81 % 1 lf 1013,5 hPa 0,0 l/m 2 min 0 min 341 W/m 29,3 km/h (5 Bft) 93,62 %
24.02.2017 14:08 6,7 C 12,8 C 7,8 C 80 % 0 lf 1013,5 hPa 0,0 l/m 2 min 0 min 462 W/m 23,0 km/h (4 Bft) 97,83 %
24.02.2017 14:10 6,8 C 14,4 C 8,3 C 77 % 0 lf 1013,6 hPa 0,0 l/m 2 min 0 min 588 W/m 25,1 km/h (4 Bft) 93,62 %
24.02.2017 14:12 7,1 C 15,6 C 8,3 C 77 % 0 lf 1013,6 hPa 0,0 l/m 2 min 0 min 579 W/m 16,7 km/h (3 Bft) 95,74 %
24.02.2017 14:14 7,3 C 15,6 C 8,9 C 76 % 0 lf 1013,7 hPa 0,0 l/m 2 min 0 min 617 W/m 18,8 km/h (3 Bft) 95,74 %
24.02.2017 14:16 7,5 C 16,7 C 8,9 C 75 % 0 lf 1013,6 hPa 0,0 l/m 2 min 0 min 648 W/m 23,0 km/h (4 Bft) 95,74 %
24.02.2017 14:18 7,6 C 16,7 C 8,9 C 74 % 0 lf 1013,6 hPa 0,0 l/m 2 min 0 min 531 W/m 23,0 km/h (4 Bft) 95,74 %
24.02.2017 14:20 7,6 C 16,1 C 8,9 C 74 % 0 lf 1013,6 hPa 0,0 l/m 2 min 0 min 547 W/m 20,9 km/h (4 Bft) 95,65 %
24.02.2017 14:22 7,4 C 16,1 C 7,8 C 74 % 0 lf 1013,6 hPa 0,0 l/m 2 min 0 min 504 W/m 27,2 km/h (4 Bft) 95,74 %
24.02.2017 14:24 7,6 C 17,2 C 7,8 C 75 % 0 lf 1013,6 hPa 0,0 l/m 2 min 0 min 464 W/m 18,8 km/h (3 Bft) 93,62 %
24.02.2017 14:26 7,8 C 17,2 C 7,8 C 75 % 0 lf 1013,6 hPa 0,0 l/m 2 min 0 min 436 W/m 14,6 km/h (3 Bft) 93,62 %
24.02.2017 14:28 7,8 C 17,2 C 7,2 C 74 % 0 lf 1013,6 hPa 0,0 l/m 2 min 0 min 505 W/m 16,7 km/h (3 Bft) 95,74 %
24.02.2017 14:30 7,8 C 17,8 C 7,2 C 75 % 0 lf 1013,6 hPa 0,0 l/m 2 min 0 min 627 W/m 16,7 km/h (3 Bft) 95,74 %
24.02.2017 14:32 7,8 C 17,8 C 7,2 C 75 % 0 lf 1013,6 hPa 0,0 l/m 2 min 0 min 450 W/m 12,6 km/h (3 Bft) 95,65 %
24.02.2017 14:34 7,9 C 17,8 C 7,2 C 75 % 0 lf 1013,7 hPa 0,0 l/m 2 min 0 min 419 W/m 12,6 km/h (3 Bft) 95,74 %
24.02.2017 14:36 8,0 C 18,3 C 7,2 C 75 % 0 lf 1013,7 hPa 0,0 l/m 2 min 0 min 418 W/m 10,5 km/h (2 Bft) 95,74 %
24.02.2017 14:38 8,2 C 18,3 C 8,3 C 75 % 0 lf 1013,6 hPa 0,0 l/m 2 min 0 min 428 W/m 20,9 km/h (4 Bft) 93,62 %
24.02.2017 14:40 8,1 C 15,6 C 8,3 C 73 % 0 lf 1013,7 hPa 0,0 l/m 2 min 0 min 326 W/m 20,9 km/h (4 Bft) 97,87 %
24.02.2017 14:42 7,9 C 15,0 C 8,9 C 73 % 0 lf 1013,7 hPa 0,0 l/m 2 min 0 min 303 W/m 18,8 km/h (3 Bft) 93,62 %
24.02.2017 14:44 7,8 C 13,3 C 8,3 C 73 % 0 lf 1013,7 hPa 0,0 l/m 2 min 0 min 259 W/m 25,1 km/h (4 Bft) 97,83 %
24.02.2017 14:46 7,6 C 11,7 C 7,8 C 74 % 0 lf 1013,7 hPa 0,0 l/m 0 min 0 min 174 W/m 18,8 km/h (3 Bft) 95,74 %
24.02.2017 14:48 7,4 C 10,6 C 7,2 C 74 % 0 lf 1013,7 hPa 0,0 l/m 0 min 0 min 183 W/m 16,7 km/h (3 Bft) 97,87 %
24.02.2017 14:50 7,3 C 10,0 C 7,8 C 75 % 0 lf 1013,7 hPa 0,0 l/m 0 min 0 min 182 W/m 16,7 km/h (3 Bft) 95,74 %
24.02.2017 14:52 7,3 C 9,4 C 7,8 C 75 % 0 lf 1013,7 hPa 0,0 l/m 0 min 0 min 182 W/m 16,7 km/h (3 Bft) 97,87 %
24.02.2017 14:54 7,2 C 9,4 C 7,8 C 76 % 0 lf 1013,7 hPa 0,0 l/m 0 min 0 min 192 W/m 16,7 km/h (3 Bft) 95,74 %
24.02.2017 14:56 7,1 C 9,4 C 7,8 C 76 % 0 lf 1013,7 hPa 0,0 l/m 0 min 0 min 198 W/m 20,9 km/h (4 Bft) 97,83 %
24.02.2017 14:58 7,1 C 9,4 C 7,8 C 76 % 0 lf 1013,7 hPa 0,0 l/m 0 min 0 min 200 W/m 14,6 km/h (3 Bft) 93,62 %
24.02.2017 15:00 7,2 C 10,0 C 7,8 C 77 % 0 lf 1013,8 hPa 0,0 l/m 2 min 0 min 221 W/m 18,8 km/h (3 Bft) 93,62 %
24.02.2017 15:02 7,2 C 10,0 C 8,3 C 77 % 0 lf 1013,8 hPa 0,0 l/m 2 min 0 min 260 W/m 16,7 km/h (3 Bft) 91,49 %
24.02.2017 15:04 7,2 C 10,6 C 8,3 C 77 % 0 lf 1013,8 hPa 0,0 l/m 2 min 0 min 254 W/m 27,2 km/h (4 Bft) 95,74 %
24.02.2017 15:06 7,2 C 10,6 C 7,8 C 77 % 0 lf 1013,8 hPa 0,0 l/m 2 min 0 min 368 W/m 20,9 km/h (4 Bft) 91,49 %
24.02.2017 15:08 7,2 C 10,6 C 7,8 C 77 % 0 lf 1013,8 hPa 0,0 l/m 0 min 0 min 188 W/m 23,0 km/h (4 Bft) 95,65 %
24.02.2017 15:10 7,2 C 10,0 C 7,8 C 77 % 0 lf 1013,9 hPa 0,0 l/m 0 min 0 min 165 W/m 20,9 km/h (4 Bft) 95,74 %
24.02.2017 15:12 7,1 C 10,0 C 7,8 C 77 % 0 lf 1013,9 hPa 0,0 l/m 0 min 0 min 178 W/m 14,6 km/h (3 Bft) 95,74 %
24.02.2017 15:14 7,1 C 9,4 C 7,2 C 77 % 0 lf 1013,9 hPa 0,0 l/m 0 min 0 min 151 W/m 29,3 km/h (5 Bft) 95,74 %
24.02.2017 15:16 7,0 C 8,9 C 7,2 C 78 % 0 lf 1013,9 hPa 0,0 l/m 0 min 0 min 122 W/m 14,6 km/h (3 Bft) 93,62 %
24.02.2017 15:18 6,9 C 8,3 C 6,7 C 78 % 0 lf 1013,9 hPa 0,0 l/m 0 min 0 min 104 W/m 16,7 km/h (3 Bft) 91,30 %
24.02.2017 15:20 6,9 C 8,3 C 6,7 C 78 % 0 lf 1013,9 hPa 0,0 l/m 0 min 0 min 95 W/m 23,0 km/h (4 Bft) 93,62 %
24.02.2017 15:22 6,8 C 8,3 C 6,7 C 78 % 0 lf 1014,0 hPa 0,0 l/m 0 min 0 min 98 W/m 16,7 km/h (3 Bft) 97,87 %
24.02.2017 15:24 6,8 C 8,3 C 6,7 C 78 % 0 lf 1014,1 hPa 0,0 l/m 0 min 0 min 99 W/m 14,6 km/h (3 Bft) 97,87 %
24.02.2017 15:26 6,8 C 8,3 C 6,7 C 77 % 0 lf 1014,2 hPa 0,0 l/m 0 min 0 min 102 W/m 16,7 km/h (3 Bft) 97,87 %
24.02.2017 15:28 6,8 C 8,3 C 6,7 C 77 % 0 lf 1014,1 hPa 0,0 l/m 0 min 0 min 115 W/m 14,6 km/h (3 Bft) 97,87 %
24.02.2017 15:30 6,8 C 8,9 C 6,7 C 76 % 0 lf 1014,1 hPa 0,0 l/m 2 min 0 min 193 W/m 20,9 km/h (4 Bft) 97,83 %
24.02.2017 15:32 6,8 C 10,6 C 7,2 C 75 % 0 lf 1014,1 hPa 0,0 l/m 2 min 0 min 224 W/m 10,5 km/h (2 Bft) 97,87 %
24.02.2017 15:34 7,0 C 12,8 C 7,8 C 75 % 0 lf 1014,1 hPa 0,0 l/m 2 min 0 min 349 W/m 14,6 km/h (3 Bft) 97,87 %
24.02.2017 15:36 7,3 C 15,0 C 8,3 C 75 % 0 lf 1014,0 hPa 0,0 l/m 2 min 0 min 391 W/m 12,6 km/h (3 Bft) 95,74 %
24.02.2017 15:38 7,6 C 15,6 C 8,3 C 74 % 0 lf 1014,1 hPa 0,0 l/m 2 min 0 min 384 W/m 14,6 km/h (3 Bft) 95,74 %
24.02.2017 15:40 7,7 C 16,1 C 8,3 C 73 % 0 lf 1014,1 hPa 0,0 l/m 2 min 0 min 364 W/m 12,6 km/h (3 Bft) 97,87 %
24.02.2017 15:42 7,7 C 16,1 C 7,8 C 72 % 0 lf 1014,1 hPa 0,0 l/m 2 min 0 min 339 W/m 18,8 km/h (3 Bft) 97,83 %
24.02.2017 15:44 7,8 C 16,1 C 7,8 C 71 % 0 lf 1014,2 hPa 0,0 l/m 2 min 0 min 323 W/m 16,7 km/h (3 Bft) 97,87 %
24.02.2017 15:46 7,8 C 15,0 C 7,8 C 71 % 0 lf 1014,2 hPa 0,0 l/m 2 min 0 min 229 W/m 16,7 km/h (3 Bft) 97,87 %
24.02.2017 15:48 7,9 C 15,6 C 7,8 C 72 % 0 lf 1014,3 hPa 0,0 l/m 2 min 0 min 241 W/m 14,6 km/h (3 Bft) 95,74 %
24.02.2017 15:50 7,9 C 15,6 C 7,8 C 72 % 0 lf 1014,2 hPa 0,0 l/m 2 min 0 min 319 W/m 14,6 km/h (3 Bft) 93,62 %
24.02.2017 15:52 7,9 C 15,6 C 7,8 C 72 % 0 lf 1014,3 hPa 0,0 l/m 2 min 0 min 313 W/m 12,6 km/h (3 Bft) 100,00 %
24.02.2017 15:54 8,0 C 15,0 C 7,8 C 72 % 0 lf 1014,3 hPa 0,0 l/m 2 min 0 min 284 W/m 23,0 km/h (4 Bft) 95,65 %
24.02.2017 15:56 7,9 C 15,6 C 7,8 C 73 % 0 lf 1014,4 hPa 0,0 l/m 2 min 0 min 260 W/m 14,6 km/h (3 Bft) 100,00 %
24.02.2017 15:58 8,0 C 16,1 C 7,8 C 74 % 0 lf 1014,5 hPa 0,0 l/m 2 min 0 min 246 W/m 16,7 km/h (3 Bft) 97,87 %
24.02.2017 16:00 7,9 C 15,0 C 7,2 C 73 % 0 lf 1014,5 hPa 0,0 l/m 2 min 0 min 240 W/m 16,7 km/h (3 Bft) 100,00 %
24.02.2017 16:02 7,8 C 15,0 C 6,7 C 74 % 0 lf 1014,6 hPa 0,0 l/m 2 min 0 min 240 W/m 18,8 km/h (3 Bft) 97,87 %
24.02.2017 16:04 7,7 C 15,0 C 6,7 C 74 % 0 lf 1014,6 hPa 0,0 l/m 2 min 0 min 247 W/m 16,7 km/h (3 Bft) 97,87 %
24.02.2017 16:06 7,6 C 14,4 C 7,2 C 74 % 0 lf 1014,6 hPa 0,0 l/m 2 min 0 min 273 W/m 12,6 km/h (3 Bft) 97,83 %
24.02.2017 16:08 7,7 C 14,4 C 7,2 C 75 % 0 lf 1014,6 hPa 0,0 l/m 2 min 0 min 294 W/m 14,6 km/h (3 Bft) 95,74 %
24.02.2017 16:10 7,7 C 15,0 C 7,2 C 75 % 0 lf 1014,6 hPa 0,0 l/m 2 min 0 min 298 W/m 18,8 km/h (3 Bft) 97,87 %
24.02.2017 16:12 7,8 C 16,1 C 7,8 C 75 % 0 lf 1014,7 hPa 0,0 l/m 2 min 0 min 299 W/m 8,4 km/h (2 Bft) 93,62 %
24.02.2017 16:14 7,9 C 15,0 C 7,8 C 75 % 0 lf 1014,6 hPa 0,0 l/m 2 min 0 min 288 W/m 14,6 km/h (3 Bft) 97,87 %
24.02.2017 16:16 7,9 C 15,0 C 7,8 C 75 % 0 lf 1014,6 hPa 0,0 l/m 2 min 0 min 273 W/m 10,5 km/h (2 Bft) 93,62 %
24.02.2017 16:18 8,0 C 15,0 C 7,8 C 74 % 0 lf 1014,6 hPa 0,0 l/m 2 min 0 min 266 W/m 16,7 km/h (3 Bft) 97,83 %
24.02.2017 16:20 8,1 C 15,0 C 8,3 C 74 % 0 lf 1014,6 hPa 0,0 l/m 2 min 0 min 265 W/m 16,7 km/h (3 Bft) 95,74 %
24.02.2017 16:22 8,1 C 15,0 C 8,3 C 74 % 0 lf 1014,6 hPa 0,0 l/m 2 min 0 min 259 W/m 10,5 km/h (2 Bft) 100,00 %
24.02.2017 16:24 8,1 C 15,0 C 8,3 C 73 % 0 lf 1014,6 hPa 0,0 l/m 2 min 0 min 260 W/m 20,9 km/h (4 Bft) 93,62 %
24.02.2017 16:26 8,1 C 15,0 C 8,3 C 73 % 0 lf 1014,6 hPa 0,0 l/m 2 min 0 min 253 W/m 14,6 km/h (3 Bft) 97,87 %
24.02.2017 16:28 8,1 C 14,4 C 8,3 C 72 % 0 lf 1014,7 hPa 0,0 l/m 2 min 0 min 238 W/m 12,6 km/h (3 Bft) 93,48 %
24.02.2017 16:30 8,0 C 14,4 C 7,8 C 73 % 0 lf 1014,7 hPa 0,0 l/m 2 min 0 min 226 W/m 14,6 km/h (3 Bft) 93,62 %
24.02.2017 16:32 7,9 C 13,9 C 7,8 C 73 % 0 lf 1014,7 hPa 0,0 l/m 2 min 0 min 218 W/m 14,6 km/h (3 Bft) 93,62 %
24.02.2017 16:34 7,9 C 14,4 C 7,8 C 74 % 0 lf 1014,7 hPa 0,0 l/m 2 min 0 min 205 W/m 10,5 km/h (2 Bft) 95,74 %
24.02.2017 16:36 7,9 C 13,9 C 7,8 C 75 % 0 lf 1014,7 hPa 0,0 l/m 2 min 0 min 198 W/m 16,7 km/h (3 Bft) 95,83 %
24.02.2017 16:38 7,8 C 12,2 C 7,8 C 75 % 0 lf 1014,6 hPa 0,0 l/m 2 min 0 min 184 W/m 14,6 km/h (3 Bft) 95,74 %
24.02.2017 16:40 7,8 C 11,1 C 7,2 C 76 % 0 lf 1014,6 hPa 0,0 l/m 2 min 0 min 174 W/m 18,8 km/h (3 Bft) 95,65 %
24.02.2017 16:42 7,7 C 10,6 C 7,2 C 76 % 0 lf 1014,6 hPa 0,0 l/m 2 min 0 min 184 W/m 18,8 km/h (3 Bft) 95,74 %
24.02.2017 16:44 7,7 C 10,0 C 7,2 C 76 % 0 lf 1014,6 hPa 0,0 l/m 2 min 0 min 185 W/m 16,7 km/h (3 Bft) 93,62 %
24.02.2017 16:46 7,7 C 9,4 C 7,2 C 76 % 0 lf 1014,6 hPa 0,0 l/m 2 min 0 min 168 W/m 16,7 km/h (3 Bft) 93,62 %
24.02.2017 16:48 7,7 C 9,4 C 7,2 C 76 % 0 lf 1014,6 hPa 0,0 l/m 2 min 0 min 105 W/m 16,7 km/h (3 Bft) 95,74 %
24.02.2017 16:50 7,6 C 8,9 C 7,2 C 76 % 0 lf 1014,7 hPa 0,0 l/m 0 min 0 min 71 W/m 16,7 km/h (3 Bft) 97,87 %
24.02.2017 16:52 7,6 C 8,9 C 6,7 C 76 % 0 lf 1014,7 hPa 0,0 l/m 0 min 0 min 61 W/m 8,4 km/h (2 Bft) 97,83 %
24.02.2017 16:54 7,6 C 8,3 C 6,7 C 76 % 0 lf 1014,8 hPa 0,0 l/m 0 min 0 min 64 W/m 14,6 km/h (3 Bft) 93,62 %
24.02.2017 16:56 7,6 C 8,3 C 6,7 C 76 % 0 lf 1014,8 hPa 0,0 l/m 0 min 0 min 77 W/m 18,8 km/h (3 Bft) 97,87 %
24.02.2017 16:58 7,6 C 8,3 C 6,7 C 76 % 0 lf 1014,8 hPa 0,0 l/m 0 min 0 min 66 W/m 12,6 km/h (3 Bft) 93,62 %
24.02.2017 17:00 7,6 C 8,3 C 6,7 C 76 % 0 lf 1014,8 hPa 0,0 l/m 0 min 2 min 52 W/m 14,6 km/h (3 Bft) 95,74 %
24.02.2017 17:02 7,6 C 8,3 C 6,7 C 76 % 0 lf 1014,9 hPa 0,0 l/m 0 min 0 min 49 W/m 14,6 km/h (3 Bft) 97,87 %
24.02.2017 17:04 7,6 C 8,3 C 6,7 C 76 % 0 lf 1015,0 hPa 0,0 l/m 0 min 0 min 55 W/m 10,5 km/h (2 Bft) 97,83 %
24.02.2017 17:06 7,5 C 8,3 C 6,7 C 76 % 0 lf 1014,9 hPa 0,0 l/m 0 min 0 min 56 W/m 8,4 km/h (2 Bft) 95,74 %
24.02.2017 17:08 7,5 C 8,3 C 6,1 C 76 % 0 lf 1015,0 hPa 0,0 l/m 0 min 0 min 50 W/m 10,5 km/h (2 Bft) 100,00 %
24.02.2017 17:10 7,5 C 7,8 C 6,1 C 76 % 0 lf 1015,0 hPa 0,0 l/m 0 min 0 min 45 W/m 6,3 km/h (2 Bft) 100,00 %
24.02.2017 17:12 7,5 C 7,8 C 6,1 C 76 % 0 lf 1015,0 hPa 0,0 l/m 0 min 0 min 41 W/m 6,3 km/h (2 Bft) 89,36 %
24.02.2017 17:14 7,5 C 7,8 C 6,1 C 77 % 0 lf 1015,0 hPa 0,0 l/m 0 min 0 min 42 W/m 6,3 km/h (2 Bft) 95,74 %
24.02.2017 17:16 7,5 C 7,8 C 5,6 C 77 % 0 lf 1015,1 hPa 0,0 l/m 0 min 0 min 38 W/m 8,4 km/h (2 Bft) 91,30 %
24.02.2017 17:18 7,4 C 7,8 C 5,6 C 76 % 0 lf 1015,1 hPa 0,0 l/m 0 min 0 min 40 W/m 16,7 km/h (3 Bft) 100,00 %
24.02.2017 17:20 7,4 C 7,2 C 5,6 C 76 % 0 lf 1015,3 hPa 0,0 l/m 0 min 0 min 31 W/m 8,4 km/h (2 Bft) 97,87 %
24.02.2017 17:22 7,4 C 7,2 C 5,6 C 76 % 0 lf 1015,3 hPa 0,0 l/m 0 min 0 min 27 W/m 10,5 km/h (2 Bft) 100,00 %
24.02.2017 17:24 7,3 C 7,2 C 5,6 C 76 % 0 lf 1015,4 hPa 0,0 l/m 0 min 0 min 25 W/m 10,5 km/h (2 Bft) 93,62 %
24.02.2017 17:26 7,3 C 7,2 C 5,6 C 76 % 0 lf 1015,4 hPa 0,0 l/m 0 min 0 min 26 W/m 10,5 km/h (2 Bft) 97,83 %
24.02.2017 17:28 7,3 C 7,2 C 5,6 C 76 % 0 lf 1015,4 hPa 0,0 l/m 0 min 0 min 28 W/m 10,5 km/h (2 Bft) 95,74 %
24.02.2017 17:30 7,3 C 7,2 C 5,0 C 76 % 0 lf 1015,4 hPa 0,0 l/m 0 min 0 min 25 W/m 8,4 km/h (2 Bft) 100,00 %
24.02.2017 17:32 7,2 C 6,7 C 5,0 C 76 % 0 lf 1015,4 hPa 0,0 l/m 0 min 0 min 19 W/m 8,4 km/h (2 Bft) 95,74 %
24.02.2017 17:34 7,2 C 6,7 C 5,0 C 76 % 0 lf 1015,5 hPa 0,0 l/m 0 min 0 min 17 W/m 10,5 km/h (2 Bft) 97,87 %
24.02.2017 17:36 7,2 C 6,7 C 4,4 C 76 % 0 lf 1015,5 hPa 0,0 l/m 0 min 0 min 15 W/m 8,4 km/h (2 Bft) 97,87 %
24.02.2017 17:38 7,1 C 6,7 C 4,4 C 76 % 0 lf 1015,6 hPa 0,0 l/m 0 min 0 min 14 W/m 10,5 km/h (2 Bft) 97,87 %
24.02.2017 17:40 7,1 C 6,1 C 4,4 C 76 % 0 lf 1015,6 hPa 0,0 l/m 0 min 0 min 14 W/m 10,5 km/h (2 Bft) 95,65 %
24.02.2017 17:42 7,0 C 6,1 C 3,9 C 76 % 0 lf 1015,7 hPa 0,0 l/m 0 min 0 min 14 W/m 8,4 km/h (2 Bft) 97,87 %
24.02.2017 17:44 6,9 C 6,1 C 3,9 C 76 % 0 lf 1015,7 hPa 0,0 l/m 0 min 0 min 13 W/m 6,3 km/h (2 Bft) 97,87 %
24.02.2017 17:46 6,9 C 6,1 C 3,9 C 76 % 0 lf 1015,8 hPa 0,0 l/m 0 min 0 min 13 W/m 8,4 km/h (2 Bft) 95,74 %
24.02.2017 17:48 6,8 C 5,6 C 3,9 C 76 % 0 lf 1015,8 hPa 0,0 l/m 0 min 0 min 13 W/m 10,5 km/h (2 Bft) 95,74 %
24.02.2017 17:50 6,8 C 5,6 C 3,3 C 76 % 0 lf 1015,9 hPa 0,0 l/m 0 min 0 min 11 W/m 10,5 km/h (2 Bft) 97,83 %
24.02.2017 17:52 6,7 C 5,6 C 3,3 C 76 % 0 lf 1015,9 hPa 0,0 l/m 0 min 0 min 11 W/m 8,4 km/h (2 Bft) 97,87 %
24.02.2017 17:54 6,7 C 5,6 C 3,3 C 76 % 0 lf 1016,0 hPa 0,0 l/m 0 min 0 min 11 W/m 8,4 km/h (2 Bft) 93,62 %
24.02.2017 17:56 6,7 C 5,0 C 2,8 C 76 % 0 lf 1016,0 hPa 0,0 l/m 0 min 0 min 10 W/m 4,2 km/h (1 Bft) 93,62 %
24.02.2017 17:58 6,6 C 5,0 C 2,8 C 76 % 0 lf 1016,0 hPa 0,0 l/m 0 min 0 min 9 W/m 6,3 km/h (2 Bft) 95,74 %
24.02.2017 18:00 6,6 C 5,0 C 2,8 C 76 % 0 lf 1016,0 hPa 0,0 l/m 0 min 0 min 8 W/m 6,3 km/h (2 Bft) 97,87 %
24.02.2017 18:02 6,5 C 5,0 C 2,8 C 76 % 0 lf 1016,1 hPa 0,0 l/m 0 min 0 min 7 W/m 8,4 km/h (2 Bft) 95,65 %
24.02.2017 18:06 6,4 C 5,0 C 2,8 C 76 % 0 lf 1016,1 hPa 0,0 l/m 0 min 0 min 8 W/m 10,5 km/h (2 Bft) 97,89 %
24.02.2017 18:08 6,4 C 5,0 C 2,8 C 76 % 0 lf 1016,1 hPa 0,0 l/m 0 min 0 min 7 W/m 8,4 km/h (2 Bft) 97,87 %
24.02.2017 18:10 6,3 C 5,0 C 2,2 C 76 % 0 lf 1016,1 hPa 0,0 l/m 0 min 0 min 7 W/m 8,4 km/h (2 Bft) 97,87 %
24.02.2017 18:12 6,2 C 5,0 C 2,2 C 76 % 0 lf 1016,2 hPa 0,0 l/m 0 min 0 min 6 W/m 8,4 km/h (2 Bft) 95,74 %
24.02.2017 18:14 6,2 C 5,0 C 2,2 C 77 % 0 lf 1016,2 hPa 0,0 l/m 0 min 0 min 6 W/m 6,3 km/h (2 Bft) 97,87 %
24.02.2017 18:16 6,1 C 4,4 C 2,2 C 77 % 0 lf 1016,3 hPa 0,0 l/m 0 min 0 min 6 W/m 8,4 km/h (2 Bft) 97,83 %
24.02.2017 18:18 6,1 C 4,4 C 2,2 C 77 % 0 lf 1016,4 hPa 0,0 l/m 0 min 0 min 6 W/m 6,3 km/h (2 Bft) 100,00 %
24.02.2017 18:20 6,0 C 4,4 C 2,2 C 77 % 0 lf 1016,5 hPa 0,0 l/m 0 min 0 min 4 W/m 8,4 km/h (2 Bft) 97,87 %
24.02.2017 18:22 5,9 C 4,4 C 2,2 C 77 % 0 lf 1016,4 hPa 0,0 l/m 0 min 0 min 2 W/m 10,5 km/h (2 Bft) 97,87 %
24.02.2017 18:24 5,9 C 4,4 C 2,2 C 77 % 0 lf 1016,5 hPa 0,0 l/m 0 min 0 min 2 W/m 10,5 km/h (2 Bft) 93,62 %
24.02.2017 18:26 5,8 C 4,4 C 2,2 C 78 % 0 lf 1016,5 hPa 0,0 l/m 0 min 0 min 1 W/m 8,4 km/h (2 Bft) 100,00 %
24.02.2017 18:28 5,8 C 4,4 C 1,7 C 78 % 0 lf 1016,6 hPa 0,0 l/m 0 min 0 min 0 W/m 6,3 km/h (2 Bft) 100,00 %
24.02.2017 18:30 5,7 C 4,4 C 1,7 C 78 % 0 lf 1016,6 hPa 0,0 l/m 0 min 0 min 0 W/m 4,2 km/h (1 Bft) 100,00 %
24.02.2017 18:32 5,7 C 3,9 C 1,7 C 78 % 0 lf 1016,7 hPa 0,0 l/m 0 min 0 min 0 W/m 6,3 km/h (2 Bft) 95,74 %
24.02.2017 18:34 5,6 C 3,9 C 1,1 C 78 % 0 lf 1016,7 hPa 0,0 l/m 0 min 0 min 0 W/m 6,3 km/h (2 Bft) 93,62 %
24.02.2017 18:36 5,6 C 3,9 C 1,1 C 78 % 0 lf 1016,7 hPa 0,0 l/m 0 min 0 min 0 W/m 6,3 km/h (2 Bft) 93,62 %
24.02.2017 18:38 5,5 C 3,3 C 1,1 C 78 % 0 lf 1016,8 hPa 0,0 l/m 0 min 0 min 0 W/m 4,2 km/h (1 Bft) 97,83 %
24.02.2017 18:40 5,4 C 3,3 C 1,1 C 78 % 0 lf 1016,8 hPa 0,0 l/m 0 min 0 min 0 W/m 6,3 km/h (2 Bft) 93,62 %
24.02.2017 18:42 5,4 C 3,3 C 1,1 C 78 % 0 lf 1016,9 hPa 0,0 l/m 0 min 0 min 0 W/m 6,3 km/h (2 Bft) 97,87 %
24.02.2017 18:44 5,4 C 3,3 C 1,1 C 78 % 0 lf 1016,9 hPa 0,0 l/m 0 min 0 min 0 W/m 4,2 km/h (1 Bft) 97,87 %
24.02.2017 18:46 5,3 C 3,3 C 1,1 C 78 % 0 lf 1016,9 hPa 0,0 l/m 0 min 0 min 2 W/m 6,3 km/h (2 Bft) 97,87 %
24.02.2017 18:48 5,3 C 3,3 C 0,6 C 78 % 0 lf 1016,9 hPa 0,0 l/m 0 min 0 min 2 W/m 4,2 km/h (1 Bft) 91,49 %
24.02.2017 18:50 5,2 C 3,3 C 0,6 C 78 % 0 lf 1017,0 hPa 0,0 l/m 0 min 0 min 2 W/m 6,3 km/h (2 Bft) 93,48 %
24.02.2017 18:52 5,1 C 3,3 C 0,6 C 78 % 0 lf 1017,0 hPa 0,0 l/m 0 min 0 min 4 W/m 6,3 km/h (2 Bft) 91,49 %
24.02.2017 18:54 5,1 C 2,8 C 0,6 C 78 % 0 lf 1017,1 hPa 0,0 l/m 0 min 0 min 4 W/m 4,2 km/h (1 Bft) 93,62 %
24.02.2017 18:56 5,1 C 3,3 C 0,6 C 78 % 0 lf 1017,0 hPa 0,0 l/m 0 min 0 min 4 W/m 6,3 km/h (2 Bft) 95,74 %
24.02.2017 18:58 5,0 C 3,3 C 0,6 C 78 % 0 lf 1017,1 hPa 0,0 l/m 0 min 0 min 4 W/m 8,4 km/h (2 Bft) 93,62 %
24.02.2017 19:00 4,9 C 3,3 C 0,6 C 79 % 0 lf 1017,1 hPa 0,0 l/m 0 min 0 min 4 W/m 10,5 km/h (2 Bft) 93,62 %
24.02.2017 19:02 4,9 C 3,3 C 0,6 C 79 % 0 lf 1017,2 hPa 0,0 l/m 0 min 0 min 4 W/m 8,4 km/h (2 Bft) 95,65 %
24.02.2017 19:04 4,8 C 3,3 C 0,6 C 79 % 0 lf 1017,3 hPa 0,0 l/m 0 min 0 min 4 W/m 6,3 km/h (2 Bft) 95,74 %
24.02.2017 19:06 4,8 C 3,3 C 1,1 C 79 % 0 lf 1017,4 hPa 0,0 l/m 0 min 0 min 4 W/m 8,4 km/h (2 Bft) 91,49 %
24.02.2017 19:08 4,7 C 3,3 C 1,1 C 80 % 0 lf 1017,4 hPa 0,0 l/m 0 min 0 min 5 W/m 8,4 km/h (2 Bft) 95,74 %
24.02.2017 19:10 4,7 C 3,3 C 0,6 C 80 % 0 lf 1017,5 hPa 0,0 l/m 0 min 0 min 0 W/m 6,3 km/h (2 Bft) 97,87 %
24.02.2017 19:12 4,6 C 3,3 C 0,6 C 80 % 0 lf 1017,5 hPa 0,0 l/m 0 min 0 min 0 W/m 6,3 km/h (2 Bft) 95,74 %
24.02.2017 19:14 4,6 C 2,8 C 0,6 C 80 % 0 lf 1017,5 hPa 0,0 l/m 0 min 0 min 0 W/m 10,5 km/h (2 Bft) 95,65 %
24.02.2017 19:16 4,5 C 3,3 C 1,1 C 80 % 0 lf 1017,5 hPa 0,0 l/m 0 min 0 min 4 W/m 8,4 km/h (2 Bft) 97,87 %
24.02.2017 19:18 4,5 C 3,3 C 1,1 C 81 % 0 lf 1017,6 hPa 0,0 l/m 0 min 0 min 5 W/m 8,4 km/h (2 Bft) 95,74 %
24.02.2017 19:20 4,4 C 3,3 C 1,1 C 81 % 0 lf 1017,6 hPa 0,0 l/m 0 min 0 min 0 W/m 6,3 km/h (2 Bft) 97,87 %
24.02.2017 19:22 4,4 C 2,8 C 1,1 C 81 % 0 lf 1017,5 hPa 0,0 l/m 0 min 0 min 0 W/m 8,4 km/h (2 Bft) 93,62 %
24.02.2017 19:24 4,4 C 3,3 C 0,6 C 81 % 0 lf 1017,5 hPa 0,0 l/m 0 min 0 min 0 W/m 8,4 km/h (2 Bft) 95,74 %
24.02.2017 19:26 4,3 C 2,8 C 0,6 C 81 % 0 lf 1017,5 hPa 0,0 l/m 0 min 0 min 5 W/m 6,3 km/h (2 Bft) 93,48 %
24.02.2017 19:28 4,3 C 2,8 C 0,6 C 81 % 0 lf 1017,6 hPa 0,0 l/m 0 min 0 min 0 W/m 8,4 km/h (2 Bft) 95,74 %
24.02.2017 19:30 4,3 C 2,8 C 0,6 C 81 % 0 lf 1017,6 hPa 0,0 l/m 0 min 0 min 0 W/m 6,3 km/h (2 Bft) 95,74 %
24.02.2017 19:32 4,2 C 2,8 C 0,6 C 81 % 0 lf 1017,8 hPa 0,0 l/m 0 min 0 min 4 W/m 6,3 km/h (2 Bft) 95,74 %
24.02.2017 19:34 4,2 C 2,8 C 0,6 C 82 % 0 lf 1017,7 hPa 0,0 l/m 0 min 0 min 4 W/m 8,4 km/h (2 Bft) 93,62 %
24.02.2017 19:36 4,2 C 2,8 C 0,6 C 82 % 0 lf 1017,8 hPa 0,0 l/m 0 min 0 min 5 W/m 8,4 km/h (2 Bft) 95,74 %
24.02.2017 19:38 4,2 C 2,8 C 0,0 C 81 % 0 lf 1017,7 hPa 0,0 l/m 0 min 0 min 3 W/m 8,4 km/h (2 Bft) 95,65 %
24.02.2017 19:40 4,1 C 2,2 C 0,0 C 82 % 0 lf 1017,8 hPa 0,0 l/m 0 min 0 min 2 W/m 6,3 km/h (2 Bft) 93,62 %
24.02.2017 19:42 4,1 C 2,2 C 0,0 C 82 % 0 lf 1017,8 hPa 0,0 l/m 0 min 0 min 2 W/m 6,3 km/h (2 Bft) 93,62 %
24.02.2017 19:44 4,1 C 2,2 C 0,0 C 82 % 0 lf 1017,9 hPa 0,0 l/m 0 min 0 min 2 W/m 8,4 km/h (2 Bft) 95,74 %
24.02.2017 19:46 4,0 C 2,2 C 0,0 C 82 % 0 lf 1017,9 hPa 0,0 l/m 0 min 0 min 2 W/m 4,2 km/h (1 Bft) 95,74 %
24.02.2017 19:48 4,0 C 2,2 C 0,0 C 82 % 0 lf 1017,9 hPa 0,0 l/m 0 min 0 min 2 W/m 4,2 km/h (1 Bft) 91,30 %
24.02.2017 19:50 3,9 C 2,2 C 0,0 C 82 % 0 lf 1017,9 hPa 0,0 l/m 0 min 0 min 2 W/m 6,3 km/h (2 Bft) 95,74 %
24.02.2017 19:52 3,9 C 2,2 C 0,0 C 82 % 0 lf 1017,9 hPa 0,0 l/m 0 min 0 min 2 W/m 4,2 km/h (1 Bft) 100,00 %
24.02.2017 19:54 3,9 C 2,2 C 0,0 C 82 % 0 lf 1017,9 hPa 0,0 l/m 0 min 0 min 3 W/m 4,2 km/h (1 Bft) 97,87 %
24.02.2017 19:56 3,9 C 2,2 C 0,0 C 82 % 0 lf 1017,9 hPa 0,0 l/m 0 min 0 min 4 W/m 4,2 km/h (1 Bft) 100,00 %
24.02.2017 19:58 3,8 C 2,2 C 0,0 C 82 % 0 lf 1018,0 hPa 0,0 l/m 0 min 0 min 4 W/m 6,3 km/h (2 Bft) 100,00 %
24.02.2017 20:00 3,8 C 2,2 C 0,0 C 82 % 0 lf 1018,0 hPa 0,0 l/m 0 min 0 min 0 W/m 6,3 km/h (2 Bft) 95,65 %
24.02.2017 20:02 3,8 C 2,2 C 0,0 C 82 % 0 lf 1018,0 hPa 0,0 l/m 0 min 0 min 0 W/m 4,2 km/h (1 Bft) 95,74 %
24.02.2017 20:04 3,7 C 2,2 C 0,0 C 82 % 0 lf 1018,1 hPa 0,0 l/m 0 min 0 min 0 W/m 6,3 km/h (2 Bft) 100,00 %
24.02.2017 20:06 3,7 C 2,2 C 0,0 C 82 % 0 lf 1018,1 hPa 0,0 l/m 0 min 0 min 0 W/m 6,3 km/h (2 Bft) 100,00 %
24.02.2017 20:08 3,7 C 2,2 C 0,0 C 82 % 0 lf 1018,0 hPa 0,0 l/m 0 min 0 min 0 W/m 6,3 km/h (2 Bft) 97,87 %
24.02.2017 20:10 3,6 C 2,2 C 0,0 C 83 % 0 lf 1018,0 hPa 0,0 l/m 0 min 0 min 0 W/m 6,3 km/h (2 Bft) 97,87 %
24.02.2017 20:12 3,6 C 2,2 C 0,0 C 82 % 0 lf 1018,0 hPa 0,0 l/m 0 min 0 min 0 W/m 6,3 km/h (2 Bft) 97,83 %
24.02.2017 20:14 3,6 C 2,2 C 0,0 C 83 % 0 lf 1018,0 hPa 0,0 l/m 0 min 0 min 0 W/m 6,3 km/h (2 Bft) 100,00 %
24.02.2017 20:16 3,5 C 2,2 C -0,6 C 83 % 0 lf 1018,1 hPa 0,0 l/m 0 min 0 min 0 W/m 8,4 km/h (2 Bft) 97,87 %
24.02.2017 20:18 3,5 C 2,2 C 0,0 C 83 % 0 lf 1018,1 hPa 0,0 l/m 0 min 0 min 0 W/m 8,4 km/h (2 Bft) 95,74 %
24.02.2017 20:20 3,4 C 2,2 C 0,0 C 83 % 0 lf 1018,1 hPa 0,0 l/m 0 min 0 min 0 W/m 6,3 km/h (2 Bft) 93,62 %
24.02.2017 20:22 3,4 C 2,2 C 0,0 C 83 % 0 lf 1018,2 hPa 0,0 l/m 0 min 0 min 0 W/m 8,4 km/h (2 Bft) 91,49 %
24.02.2017 20:24 3,4 C 2,2 C 0,0 C 83 % 0 lf 1018,1 hPa 0,0 l/m 0 min 0 min 0 W/m 6,3 km/h (2 Bft) 97,83 %
24.02.2017 20:26 3,4 C 2,2 C -0,6 C 83 % 0 lf 1018,2 hPa 0,0 l/m 0 min 0 min 0 W/m 8,4 km/h (2 Bft) 93,62 %
24.02.2017 20:28 3,3 C 2,2 C -0,6 C 83 % 0 lf 1018,3 hPa 0,0 l/m 0 min 0 min 0 W/m 8,4 km/h (2 Bft) 97,87 %
24.02.2017 20:30 3,3 C 2,2 C 0,0 C 83 % 0 lf 1018,3 hPa 0,0 l/m 0 min 0 min 0 W/m 6,3 km/h (2 Bft) 97,87 %
24.02.2017 20:32 3,2 C 2,2 C 0,0 C 83 % 0 lf 1018,4 hPa 0,0 l/m 0 min 0 min 0 W/m 6,3 km/h (2 Bft) 91,49 %
24.02.2017 20:34 3,2 C 2,2 C 0,0 C 84 % 0 lf 1018,4 hPa 0,0 l/m 0 min 0 min 0 W/m 4,2 km/h (1 Bft) 97,87 %
24.02.2017 20:36 3,2 C 2,2 C 0,0 C 84 % 0 lf 1018,5 hPa 0,0 l/m 0 min 0 min 0 W/m 4,2 km/h (1 Bft) 97,83 %
24.02.2017 20:38 3,2 C 2,2 C -0,6 C 84 % 0 lf 1018,4 hPa 0,0 l/m 0 min 0 min 0 W/m 8,4 km/h (2 Bft) 93,62 %
24.02.2017 20:40 3,1 C 2,2 C -0,6 C 84 % 0 lf 1018,4 hPa 0,0 l/m 0 min 0 min 0 W/m 6,3 km/h (2 Bft) 93,62 %
24.02.2017 20:42 3,1 C 2,2 C -0,6 C 84 % 0 lf 1018,4 hPa 0,0 l/m 0 min 0 min 0 W/m 6,3 km/h (2 Bft) 95,74 %
24.02.2017 20:44 3,1 C 2,2 C -0,6 C 84 % 0 lf 1018,5 hPa 0,0 l/m 0 min 0 min 0 W/m 6,3 km/h (2 Bft) 97,87 %
24.02.2017 20:46 3,1 C 1,7 C -0,6 C 84 % 0 lf 1018,5 hPa 0,0 l/m 0 min 0 min 0 W/m 6,3 km/h (2 Bft) 97,87 %
24.02.2017 20:48 3,0 C 1,7 C -0,6 C 84 % 0 lf 1018,4 hPa 0,0 l/m 0 min 0 min 0 W/m 6,3 km/h (2 Bft) 97,83 %
24.02.2017 20:50 3,0 C 1,7 C -0,6 C 84 % 0 lf 1018,4 hPa 0,0 l/m 0 min 0 min 0 W/m 4,2 km/h (1 Bft) 91,49 %
24.02.2017 20:52 2,9 C 1,7 C -0,6 C 84 % 0 lf 1018,5 hPa 0,0 l/m 0 min 0 min 0 W/m 6,3 km/h (2 Bft) 95,74 %
24.02.2017 20:54 2,9 C 1,7 C -0,6 C 84 % 0 lf 1018,6 hPa 0,0 l/m 0 min 0 min 0 W/m 4,2 km/h (1 Bft) 95,74 %
24.02.2017 20:56 2,9 C 1,7 C -0,6 C 85 % 0 lf 1018,6 hPa 0,0 l/m 0 min 0 min 0 W/m 4,2 km/h (1 Bft) 93,62 %
24.02.2017 20:58 2,9 C 1,7 C -0,6 C 84 % 0 lf 1018,6 hPa 0,0 l/m 0 min 0 min 0 W/m 4,2 km/h (1 Bft) 93,48 %
24.02.2017 21:00 2,8 C 1,7 C -0,6 C 85 % 0 lf 1018,6 hPa 0,0 l/m 0 min 0 min 0 W/m 6,3 km/h (2 Bft) 89,36 %
24.02.2017 21:02 2,8 C 1,7 C -0,6 C 85 % 0 lf 1018,6 hPa 0,0 l/m 0 min 0 min 0 W/m 8,4 km/h (2 Bft) 93,62 %
24.02.2017 21:04 2,8 C 1,7 C -0,6 C 85 % 0 lf 1018,6 hPa 0,0 l/m 0 min 0 min 0 W/m 6,3 km/h (2 Bft) 89,36 %
24.02.2017 21:06 2,8 C 1,7 C -0,6 C 85 % 0 lf 1018,7 hPa 0,0 l/m 0 min 0 min 0 W/m 6,3 km/h (2 Bft) 95,74 %
24.02.2017 21:08 2,7 C 1,7 C -0,6 C 85 % 0 lf 1018,7 hPa 0,0 l/m 0 min 0 min 0 W/m 6,3 km/h (2 Bft) 93,62 %
24.02.2017 21:10 2,7 C 1,7 C -0,6 C 85 % 0 lf 1018,7 hPa 0,0 l/m 0 min 0 min 0 W/m 4,2 km/h (1 Bft) 93,48 %
24.02.2017 21:12 2,7 C 1,7 C -0,6 C 85 % 0 lf 1018,7 hPa 0,0 l/m 0 min 0 min 0 W/m 4,2 km/h (1 Bft) 93,62 %
24.02.2017 21:14 2,7 C 1,7 C -0,6 C 85 % 0 lf 1018,7 hPa 0,0 l/m 0 min 0 min 0 W/m 6,3 km/h (2 Bft) 91,49 %
24.02.2017 21:16 2,6 C 1,1 C -0,6 C 85 % 0 lf 1018,7 hPa 0,0 l/m 0 min 0 min 0 W/m 4,2 km/h (1 Bft) 93,62 %
24.02.2017 21:18 2,6 C 1,7 C -0,6 C 85 % 0 lf 1018,7 hPa 0,0 l/m 0 min 0 min 0 W/m 4,2 km/h (1 Bft) 93,62 %
24.02.2017 21:20 2,6 C 1,7 C -0,6 C 85 % 0 lf 1018,7 hPa 0,0 l/m 0 min 0 min 0 W/m 8,4 km/h (2 Bft) 91,49 %
24.02.2017 21:22 2,6 C 1,7 C -0,6 C 86 % 0 lf 1018,7 hPa 0,0 l/m 0 min 0 min 0 W/m 8,4 km/h (2 Bft) 91,30 %
24.02.2017 21:24 2,6 C 1,7 C -0,6 C 86 % 0 lf 1018,6 hPa 0,0 l/m 0 min 0 min 0 W/m 8,4 km/h (2 Bft) 91,49 %
24.02.2017 21:26 2,5 C 1,7 C -0,6 C 86 % 0 lf 1018,7 hPa 0,0 l/m 0 min 0 min 0 W/m 4,2 km/h (1 Bft) 93,62 %
24.02.2017 21:28 2,5 C 1,7 C -0,6 C 86 % 0 lf 1018,6 hPa 0,0 l/m 0 min 0 min 0 W/m 4,2 km/h (1 Bft) 95,74 %
24.02.2017 21:30 2,4 C 1,7 C -0,6 C 86 % 0 lf 1018,7 hPa 0,0 l/m 0 min 0 min 0 W/m 6,3 km/h (2 Bft) 93,62 %
24.02.2017 21:32 2,4 C 2,2 C -0,6 C 86 % 0 lf 1018,7 hPa 0,0 l/m 0 min 0 min 0 W/m 6,3 km/h (2 Bft) 93,62 %
24.02.2017 21:34 2,4 C 2,2 C -0,6 C 86 % 0 lf 1018,7 hPa 0,0 l/m 0 min 0 min 0 W/m 6,3 km/h (2 Bft) 95,65 %
24.02.2017 21:36 2,4 C 2,2 C -0,6 C 86 % 0 lf 1018,7 hPa 0,0 l/m 0 min 0 min 0 W/m 6,3 km/h (2 Bft) 93,62 %
24.02.2017 21:38 2,4 C 2,2 C -1,1 C 86 % 0 lf 1018,7 hPa 0,0 l/m 0 min 0 min 0 W/m 4,2 km/h (1 Bft) 95,74 %
24.02.2017 21:40 2,4 C 1,7 C -1,1 C 87 % 0 lf 1018,7 hPa 0,0 l/m 0 min 0 min 0 W/m 4,2 km/h (1 Bft) 95,74 %
24.02.2017 21:42 2,3 C 1,7 C -1,1 C 87 % 0 lf 1018,8 hPa 0,0 l/m 0 min 0 min 0 W/m 6,3 km/h (2 Bft) 95,74 %
24.02.2017 21:44 2,3 C 1,7 C -1,1 C 87 % 0 lf 1018,8 hPa 0,0 l/m 0 min 0 min 0 W/m 6,3 km/h (2 Bft) 95,74 %
24.02.2017 21:46 2,3 C 1,7 C -1,1 C 87 % 0 lf 1018,8 hPa 0,0 l/m 0 min 0 min 0 W/m 6,3 km/h (2 Bft) 95,65 %
24.02.2017 21:48 2,3 C 1,1 C -1,1 C 87 % 0 lf 1018,8 hPa 0,0 l/m 0 min 0 min 0 W/m 6,3 km/h (2 Bft) 97,87 %
24.02.2017 21:50 2,3 C 1,1 C -1,1 C 87 % 0 lf 1018,8 hPa 0,0 l/m 0 min 0 min 0 W/m 6,3 km/h (2 Bft) 97,87 %
24.02.2017 21:52 2,2 C 1,1 C -1,1 C 87 % 0 lf 1018,8 hPa 0,0 l/m 0 min 0 min 0 W/m 6,3 km/h (2 Bft) 100,00 %
24.02.2017 21:54 2,2 C 1,1 C -1,1 C 87 % 0 lf 1018,9 hPa 0,0 l/m 0 min 0 min 0 W/m 6,3 km/h (2 Bft) 97,87 %
24.02.2017 21:56 2,2 C 1,1 C -1,1 C 87 % 0 lf 1019,0 hPa 0,0 l/m 0 min 0 min 0 W/m 6,3 km/h (2 Bft) 100,00 %
24.02.2017 21:58 2,2 C 1,1 C -1,1 C 87 % 0 lf 1018,9 hPa 0,0 l/m 0 min 0 min 0 W/m 6,3 km/h (2 Bft) 95,65 %
24.02.2017 22:00 2,2 C 1,1 C -1,1 C 87 % 0 lf 1018,9 hPa 0,0 l/m 0 min 0 min 0 W/m 8,4 km/h (2 Bft) 100,00 %
24.02.2017 22:02 2,1 C 1,1 C -1,1 C 87 % 0 lf 1019,0 hPa 0,0 l/m 0 min 0 min 0 W/m 6,3 km/h (2 Bft) 100,00 %
24.02.2017 22:04 2,1 C 1,1 C -1,1 C 87 % 0 lf 1019,0 hPa 0,0 l/m 0 min 0 min 0 W/m 6,3 km/h (2 Bft) 95,74 %
24.02.2017 22:06 2,1 C 1,1 C -1,1 C 87 % 0 lf 1019,0 hPa 0,0 l/m 0 min 0 min 0 W/m 6,3 km/h (2 Bft) 97,87 %
24.02.2017 22:08 2,1 C 0,6 C -1,1 C 87 % 0 lf 1019,0 hPa 0,0 l/m 0 min 0 min 0 W/m 6,3 km/h (2 Bft) 100,00 %
24.02.2017 22:10 2,0 C 0,6 C -1,1 C 87 % 0 lf 1019,0 hPa 0,0 l/m 0 min 0 min 0 W/m 6,3 km/h (2 Bft) 100,00 %
24.02.2017 22:12 2,0 C 0,6 C -1,7 C 87 % 0 lf 1019,1 hPa 0,0 l/m 0 min 0 min 0 W/m 6,3 km/h (2 Bft) 100,00 %
24.02.2017 22:14 1,9 C 0,6 C -1,7 C 87 % 0 lf 1019,1 hPa 0,0 l/m 0 min 0 min 0 W/m 6,3 km/h (2 Bft) 91,49 %
24.02.2017 22:16 1,9 C 0,6 C -1,7 C 87 % 0 lf 1019,2 hPa 0,0 l/m 0 min 0 min 0 W/m 6,3 km/h (2 Bft) 93,62 %
24.02.2017 22:18 1,9 C 0,6 C -1,7 C 87 % 0 lf 1019,1 hPa 0,0 l/m 0 min 0 min 0 W/m 6,3 km/h (2 Bft) 95,74 %
24.02.2017 22:20 1,9 C 0,6 C -1,7 C 87 % 0 lf 1019,2 hPa 0,0 l/m 0 min 0 min 0 W/m 6,3 km/h (2 Bft) 95,65 %
24.02.2017 22:22 1,8 C 0,6 C -1,7 C 87 % 0 lf 1019,2 hPa 0,0 l/m 0 min 0 min 0 W/m 6,3 km/h (2 Bft) 95,74 %
24.02.2017 22:24 1,8 C 0,6 C -1,7 C 87 % 0 lf 1019,2 hPa 0,0 l/m 0 min 0 min 0 W/m 4,2 km/h (1 Bft) 95,74 %
24.02.2017 22:26 1,8 C 0,6 C -1,7 C 88 % 0 lf 1019,2 hPa 0,0 l/m 0 min 0 min 0 W/m 4,2 km/h (1 Bft) 95,74 %
24.02.2017 22:28 1,8 C 0,6 C -1,7 C 87 % 0 lf 1019,3 hPa 0,0 l/m 0 min 0 min 0 W/m 4,2 km/h (1 Bft) 97,87 %
24.02.2017 22:30 1,7 C 0,6 C -1,7 C 87 % 0 lf 1019,2 hPa 0,0 l/m 0 min 0 min 0 W/m 4,2 km/h (1 Bft) 95,74 %
24.02.2017 22:32 1,7 C 0,6 C -1,7 C 87 % 0 lf 1019,3 hPa 0,0 l/m 0 min 0 min 0 W/m 8,4 km/h (2 Bft) 95,65 %
24.02.2017 22:34 1,7 C 0,6 C -1,7 C 88 % 0 lf 1019,3 hPa 0,0 l/m 0 min 0 min 0 W/m 8,4 km/h (2 Bft) 95,74 %
24.02.2017 22:36 1,7 C 1,1 C -1,7 C 88 % 0 lf 1019,4 hPa 0,0 l/m 0 min 0 min 0 W/m 8,4 km/h (2 Bft) 97,87 %
24.02.2017 22:38 1,7 C 0,6 C -1,1 C 88 % 0 lf 1019,4 hPa 0,0 l/m 0 min 0 min 0 W/m 6,3 km/h (2 Bft) 95,74 %
24.02.2017 22:40 1,6 C 0,6 C -1,1 C 88 % 0 lf 1019,4 hPa 0,0 l/m 0 min 0 min 0 W/m 6,3 km/h (2 Bft) 97,87 %
24.02.2017 22:42 1,6 C 0,6 C -1,7 C 88 % 0 lf 1019,5 hPa 0,0 l/m 0 min 0 min 0 W/m 6,3 km/h (2 Bft) 97,87 %
24.02.2017 22:44 1,6 C 0,6 C -1,7 C 88 % 0 lf 1019,5 hPa 0,0 l/m 0 min 0 min 0 W/m 6,3 km/h (2 Bft) 91,30 %
24.02.2017 22:46 1,6 C 0,6 C -1,7 C 88 % 0 lf 1019,5 hPa 0,0 l/m 0 min 0 min 0 W/m 6,3 km/h (2 Bft) 93,62 %
24.02.2017 22:48 1,6 C 0,6 C -1,7 C 88 % 0 lf 1019,6 hPa 0,0 l/m 0 min 0 min 0 W/m 6,3 km/h (2 Bft) 97,87 %
24.02.2017 22:50 1,6 C 0,6 C -1,7 C 88 % 0 lf 1019,6 hPa 0,0 l/m 0 min 0 min 0 W/m 6,3 km/h (2 Bft) 95,74 %
24.02.2017 22:52 1,5 C 0,6 C -1,7 C 88 % 0 lf 1019,6 hPa 0,0 l/m 0 min 0 min 0 W/m 4,2 km/h (1 Bft) 95,74 %
24.02.2017 22:54 1,5 C 0,6 C -1,7 C 88 % 0 lf 1019,6 hPa 0,0 l/m 0 min 0 min 0 W/m 2,1 km/h (1 Bft) 95,74 %
24.02.2017 22:56 1,5 C 0,6 C -1,7 C 88 % 0 lf 1019,5 hPa 0,0 l/m 0 min 0 min 0 W/m 4,2 km/h (1 Bft) 91,30 %
24.02.2017 22:58 1,4 C 0,6 C -1,7 C 88 % 0 lf 1019,5 hPa 0,0 l/m 0 min 0 min 0 W/m 6,3 km/h (2 Bft) 95,74 %
24.02.2017 23:00 1,4 C 0,6 C -1,7 C 88 % 0 lf 1019,6 hPa 0,0 l/m 0 min 0 min 0 W/m 6,3 km/h (2 Bft) 93,62 %
24.02.2017 23:02 1,4 C 0,6 C -1,7 C 88 % 1 lf 1019,6 hPa 0,0 l/m 0 min 0 min 0 W/m 4,2 km/h (1 Bft) 95,74 %
24.02.2017 23:04 1,4 C 0,6 C -1,7 C 88 % 1 lf 1019,6 hPa 0,0 l/m 0 min 0 min 0 W/m 4,2 km/h (1 Bft) 93,62 %
24.02.2017 23:06 1,4 C 0,6 C -1,7 C 88 % 1 lf 1019,6 hPa 0,0 l/m 0 min 0 min 0 W/m 2,1 km/h (1 Bft) 95,74 %
24.02.2017 23:08 1,3 C 0,6 C -1,7 C 89 % 1 lf 1019,6 hPa 0,0 l/m 0 min 0 min 0 W/m 4,2 km/h (1 Bft) 89,13 %
24.02.2017 23:10 1,3 C 0,6 C -1,7 C 89 % 1 lf 1019,6 hPa 0,0 l/m 0 min 0 min 0 W/m 4,2 km/h (1 Bft) 93,62 %
24.02.2017 23:12 1,3 C 0,6 C -2,2 C 89 % 1 lf 1019,6 hPa 0,0 l/m 0 min 0 min 0 W/m 4,2 km/h (1 Bft) 93,62 %
24.02.2017 23:14 1,3 C 0,6 C -1,7 C 89 % 1 lf 1019,6 hPa 0,0 l/m 0 min 0 min 0 W/m 2,1 km/h (1 Bft) 93,62 %
24.02.2017 23:16 1,2 C 0,6 C -1,7 C 89 % 1 lf 1019,6 hPa 0,0 l/m 0 min 0 min 0 W/m 4,2 km/h (1 Bft) 95,74 %
24.02.2017 23:18 1,2 C 0,6 C -2,2 C 89 % 1 lf 1019,6 hPa 0,0 l/m 0 min 0 min 0 W/m 2,1 km/h (1 Bft) 95,74 %
24.02.2017 23:20 1,2 C 0,0 C -2,2 C 89 % 1 lf 1019,6 hPa 0,0 l/m 0 min 0 min 0 W/m 4,2 km/h (1 Bft) 89,13 %
24.02.2017 23:22 1,2 C 0,0 C -2,2 C 89 % 1 lf 1019,6 hPa 0,0 l/m 0 min 0 min 0 W/m 4,2 km/h (1 Bft) 95,74 %
24.02.2017 23:24 1,2 C 0,0 C -2,2 C 89 % 1 lf 1019,6 hPa 0,0 l/m 0 min 0 min 0 W/m 4,2 km/h (1 Bft) 93,62 %
24.02.2017 23:26 1,1 C 0,0 C -2,2 C 89 % 1 lf 1019,7 hPa 0,0 l/m 0 min 0 min 5 W/m 4,2 km/h (1 Bft) 95,74 %
24.02.2017 23:28 1,1 C 0,0 C -2,2 C 89 % 1 lf 1019,7 hPa 0,0 l/m 0 min 0 min 2 W/m 4,2 km/h (1 Bft) 95,74 %
24.02.2017 23:30 1,1 C 0,0 C -2,2 C 89 % 1 lf 1019,6 hPa 0,0 l/m 0 min 0 min 2 W/m 2,1 km/h (1 Bft) 97,83 %
24.02.2017 23:32 1,1 C 0,0 C -2,2 C 89 % 1 lf 1019,6 hPa 0,0 l/m 0 min 0 min 2 W/m 4,2 km/h (1 Bft) 97,87 %
24.02.2017 23:34 1,0 C 0,0 C -2,2 C 89 % 2 lf 1019,7 hPa 0,0 l/m 0 min 0 min 2 W/m 2,1 km/h (1 Bft) 97,87 %
24.02.2017 23:36 0,9 C 0,6 C -2,2 C 89 % 2 lf 1019,7 hPa 0,0 l/m 0 min 0 min 2 W/m 4,2 km/h (1 Bft) 91,49 %
24.02.2017 23:38 0,9 C 0,6 C -2,2 C 89 % 2 lf 1019,7 hPa 0,0 l/m 0 min 0 min 2 W/m 4,2 km/h (1 Bft) 97,87 %
24.02.2017 23:40 0,9 C 0,6 C -2,2 C 89 % 2 lf 1019,7 hPa 0,0 l/m 0 min 0 min 2 W/m 4,2 km/h (1 Bft) 95,74 %
24.02.2017 23:42 0,9 C 0,6 C -2,2 C 89 % 2 lf 1019,7 hPa 0,0 l/m 0 min 0 min 2 W/m 6,3 km/h (2 Bft) 95,65 %
24.02.2017 23:44 0,9 C 0,0 C -2,2 C 89 % 2 lf 1019,7 hPa 0,0 l/m 0 min 0 min 2 W/m 2,1 km/h (1 Bft) 95,74 %
24.02.2017 23:46 0,8 C 0,0 C -2,2 C 89 % 2 lf 1019,7 hPa 0,0 l/m 0 min 0 min 2 W/m 4,2 km/h (1 Bft) 95,74 %
24.02.2017 23:48 0,8 C 0,0 C -2,2 C 89 % 2 lf 1019,8 hPa 0,0 l/m 0 min 0 min 2 W/m 4,2 km/h (1 Bft) 97,87 %
24.02.2017 23:50 0,8 C 0,0 C -2,2 C 89 % 2 lf 1019,8 hPa 0,0 l/m 0 min 0 min 2 W/m 6,3 km/h (2 Bft) 100,00 %
24.02.2017 23:52 0,8 C 0,0 C -2,2 C 89 % 2 lf 1019,8 hPa 0,0 l/m 0 min 0 min 2 W/m 6,3 km/h (2 Bft) 97,87 %
24.02.2017 23:54 0,7 C 0,0 C -2,2 C 90 % 2 lf 1019,9 hPa 0,0 l/m 0 min 0 min 2 W/m 6,3 km/h (2 Bft) 100,00 %
24.02.2017 23:56 0,7 C 0,0 C -2,2 C 90 % 2 lf 1019,9 hPa 0,0 l/m 0 min 0 min 2 W/m 6,3 km/h (2 Bft) 100,00 %
24.02.2017 23:58 0,7 C 0,0 C -2,2 C 90 % 2 lf 1019,9 hPa 0,0 l/m 0 min 0 min 2 W/m 4,2 km/h (1 Bft) 100,00 %
_ Min-Zeit 23:54 23:20 23:12 11:56 04:12 00:00 - - - - 22:54 07:38
Minimum _ 0,7 C 0,0 C -2,2 C 68 % 0 lf 994,4 hPa - - - - 2,1 km/h (1 Bft) 85,37 %
_ Max-Zeit 12:26 12:28 12:28 05:58 00:00 23:54 00:30 07:46 00:00 12:30 00:05 00:18
Maximum _ 8,2 C 20,0 C 9,4 C 94 % 15 lf 1019,9 hPa 0,2 l/m 2 min 2 min 740 W/m 66,9 km/h
NW (8 Bft)
100,00 %
Durchschnitt _ 4,7 C 6,1 C 3,0 C 85 % 4 lf 1011,1 hPa #1,2 l/m #5:38 h #3:27 h 130 W/m 18,6 km/h (3 Bft) 96,02 %
© 2017 W. Hausmann